Observation data for Throckmorton on 11/19/2019      Previous  Date       Current Mesonet Observations  Soil Data  Daily Summary Page  Observations in Plain Language
KTH1 190600Z 22005KT 10/05 A2993 RMK A01 T00980045  RH  069%=      5-min Rain = 0
KTH1 190601Z 22005KT 10/05 A2993 RMK A01 T00950046  RH  071%=      5-min Rain = 0
KTH1 190602Z 22005KT 09/05 A2993 RMK A01 T00930046  RH  072%=      5-min Rain = 0
KTH1 190603Z 22005KT 09/05 A2993 RMK A01 T00920047  RH  073%=      5-min Rain = 0
KTH1 190604Z 22004KT 09/05 A2993 RMK A01 T00920045  RH  072%=      5-min Rain = 0
KTH1 190605Z 22005KT 09/05 A2993 RMK A01 T00920048  RH  074%=      5-min Rain = 0
KTH1 190606Z 22004KT 09/05 A2993 RMK A01 T00910048  RH  075%=      5-min Rain = 0
KTH1 190607Z 22005KT 09/05 A2993 RMK A01 T00900048  RH  075%=      5-min Rain = 0
KTH1 190608Z 22005KT 09/05 A2993 RMK A01 T00880049  RH  076%=      5-min Rain = 0
KTH1 190609Z 22005KT 09/05 A2993 RMK A01 T00860048  RH  077%=      5-min Rain = 0
KTH1 190610Z 22005KT 09/05 A2993 RMK A01 T00850047  RH  077%=      5-min Rain = 0
KTH1 190611Z 22004KT 08/04 A2993 RMK A01 T00830042  RH  075%=      5-min Rain = 0
KTH1 190612Z 22004KT 08/04 A2993 RMK A01 T00830039  RH  074%=      5-min Rain = 0
KTH1 190613Z 22004KT 08/04 A2993 RMK A01 T00830038  RH  073%=      5-min Rain = 0
KTH1 190614Z 21004KT 08/04 A2993 RMK A01 T00840037  RH  072%=      5-min Rain = 0
KTH1 190615Z 21005KT 09/04 A2993 RMK A01 T00850037  RH  072%=      5-min Rain = 0
KTH1 190616Z 21005KT 09/04 A2993 RMK A01 T00860037  RH  071%=      5-min Rain = 0
KTH1 190617Z 21005KT 09/03 A2993 RMK A01 T00870034  RH  070%=      5-min Rain = 0
KTH1 190618Z 21005KT 09/03 A2993 RMK A01 T00910033  RH  067%=      5-min Rain = 0
KTH1 190619Z 22004KT 10/03 A2993 RMK A01 T00960033  RH  065%=      5-min Rain = 0
KTH1 190620Z 21004KT 10/03 A2993 RMK A01 T01010033  RH  063%=      5-min Rain = 0
KTH1 190621Z 21005KT 10/03 A2993 RMK A01 T01020034  RH  062%=      5-min Rain = 0
KTH1 190622Z 22005KT 10/03 A2993 RMK A01 T01030033  RH  062%=      5-min Rain = 0
KTH1 190623Z 22004KT 10/03 A2993 RMK A01 T01030034  RH  062%=      5-min Rain = 0
KTH1 190624Z 22005KT 10/04 A2993 RMK A01 T01020036  RH  064%=      5-min Rain = 0
KTH1 190625Z 22005KT 10/04 A2993 RMK A01 T01010036  RH  064%=      5-min Rain = 0
KTH1 190626Z 22004KT 10/04 A2993 RMK A01 T01000036  RH  064%=      5-min Rain = 0
KTH1 190627Z 22005KT 10/04 A2993 RMK A01 T01000036  RH  064%=      5-min Rain = 0
KTH1 190628Z 22005KT 10/03 A2993 RMK A01 T01010034  RH  063%=      5-min Rain = 0
KTH1 190629Z 22005KT 10/03 A2993 RMK A01 T01010032  RH  062%=      5-min Rain = 0
KTH1 190630Z 21005KT 10/03 A2993 RMK A01 T01030031  RH  061%=      5-min Rain = 0
KTH1 190631Z 22005KT 11/03 A2993 RMK A01 T01070032  RH  060%=      5-min Rain = 0
KTH1 190632Z 22005KT 11/03 A2993 RMK A01 T01120032  RH  058%=      5-min Rain = 0
KTH1 190633Z 22005KT 11/03 A2993 RMK A01 T01140032  RH  057%=      5-min Rain = 0
KTH1 190634Z 22005KT 12/03 A2993 RMK A01 T01150034  RH  057%=      5-min Rain = 0
KTH1 190635Z 22005KT 11/03 A2993 RMK A01 T01140034  RH  058%=      5-min Rain = 0
KTH1 190636Z 23005KT 11/03 A2993 RMK A01 T01130034  RH  058%=      5-min Rain = 0
KTH1 190637Z 23005KT 11/03 A2993 RMK A01 T01110033  RH  059%=      5-min Rain = 0
KTH1 190638Z 22005KT 11/03 A2993 RMK A01 T01100034  RH  060%=      5-min Rain = 0
KTH1 190639Z 23005KT 11/03 A2993 RMK A01 T01080034  RH  060%=      5-min Rain = 0
KTH1 190640Z 23005KT 11/03 A2993 RMK A01 T01080034  RH  061%=      5-min Rain = 0
KTH1 190641Z 23005KT 11/03 A2993 RMK A01 T01070034  RH  061%=      5-min Rain = 0
KTH1 190642Z 23006KT 11/03 A2993 RMK A01 T01070034  RH  060%=      5-min Rain = 0
KTH1 190643Z 23006KT 11/03 A2993 RMK A01 T01090034  RH  060%=      5-min Rain = 0
KTH1 190644Z 22006KT 11/03 A2993 RMK A01 T01100034  RH  059%=      5-min Rain = 0
KTH1 190645Z 23006KT 11/03 A2993 RMK A01 T01110034  RH  059%=      5-min Rain = 0
KTH1 190646Z 22006KT 11/03 A2993 RMK A01 T01130034  RH  058%=      5-min Rain = 0
KTH1 190647Z 23006KT 11/03 A2993 RMK A01 T01140034  RH  058%=      5-min Rain = 0
KTH1 190648Z 23006KT 12/03 A2993 RMK A01 T01150033  RH  057%=      5-min Rain = 0
KTH1 190649Z 23006KT 12/04 A2993 RMK A01 T01160035  RH  057%=      5-min Rain = 0
KTH1 190650Z 23005KT 12/04 A2993 RMK A01 T01150037  RH  059%=      5-min Rain = 0
KTH1 190651Z 23006KT 11/04 A2993 RMK A01 T01130038  RH  060%=      5-min Rain = 0
KTH1 190652Z 23006KT 11/04 A2993 RMK A01 T01100038  RH  061%=      5-min Rain = 0
KTH1 190653Z 23006KT 11/04 A2993 RMK A01 T01100037  RH  061%=      5-min Rain = 0
KTH1 190654Z 23006KT 11/04 A2993 RMK A01 T01090040  RH  063%=      5-min Rain = 0
KTH1 190655Z 23006KT 11/04 A2993 RMK A01 T01070041  RH  064%=      5-min Rain = 0
KTH1 190656Z 23006KT 11/04 A2993 RMK A01 T01050042  RH  065%=      5-min Rain = 0
KTH1 190657Z 24006KT 10/04 A2993 RMK A01 T01040041  RH  065%=      5-min Rain = 0
KTH1 190658Z 24006KT 10/04 A2993 RMK A01 T01040041  RH  065%=      5-min Rain = 0
KTH1 190659Z 24006KT 10/04 A2993 RMK A01 T01040039  RH  064%=      5-min Rain = 0
KTH1 190700Z 23006KT 11/04 A2993 RMK A01 T01050041  RH  065%=      5-min Rain = 0
KTH1 190701Z 24006KT 10/04 A2993 RMK A01 T01030044  RH  067%=      5-min Rain = 0
KTH1 190702Z 24006KT 10/05 A2993 RMK A01 T01010045  RH  068%=      5-min Rain = 0
KTH1 190703Z 24006KT 10/05 A2993 RMK A01 T00990046  RH  070%=      5-min Rain = 0
KTH1 190704Z 24006KT 10/05 A2993 RMK A01 T00980048  RH  071%=      5-min Rain = 0
KTH1 190705Z 24006KT 10/05 A2993 RMK A01 T00970047  RH  071%=      5-min Rain = 0
KTH1 190706Z 25005KT 10/05 A2993 RMK A01 T00960046  RH  071%=      5-min Rain = 0
KTH1 190707Z 24005KT 10/05 A2993 RMK A01 T00950045  RH  071%=      5-min Rain = 0
KTH1 190708Z 25005KT 10/04 A2993 RMK A01 T00950043  RH  070%=      5-min Rain = 0
KTH1 190709Z 24005KT 10/04 A2993 RMK A01 T00950043  RH  070%=      5-min Rain = 0
KTH1 190710Z 25004KT 10/04 A2993 RMK A01 T00950043  RH  070%=      5-min Rain = 0
KTH1 190711Z 25004KT 10/04 A2993 RMK A01 T00950043  RH  070%=      5-min Rain = 0
KTH1 190712Z 25004KT 10/04 A2993 RMK A01 T00950042  RH  070%=      5-min Rain = 0
KTH1 190713Z 25004KT 10/04 A2993 RMK A01 T00950041  RH  069%=      5-min Rain = 0
KTH1 190714Z 25004KT 10/04 A2993 RMK A01 T00960041  RH  069%=      5-min Rain = 0
KTH1 190715Z 25004KT 10/04 A2993 RMK A01 T00970040  RH  068%=      5-min Rain = 0
KTH1 190716Z 25004KT 10/04 A2993 RMK A01 T00970039  RH  067%=      5-min Rain = 0
KTH1 190717Z 24004KT 10/04 A2993 RMK A01 T00980040  RH  067%=      5-min Rain = 0
KTH1 190718Z 25004KT 10/04 A2993 RMK A01 T00980039  RH  067%=      5-min Rain = 0
KTH1 190719Z 24004KT 10/04 A2993 RMK A01 T00990038  RH  066%=      5-min Rain = 0
KTH1 190720Z 24004KT 10/04 A2993 RMK A01 T00990038  RH  066%=      5-min Rain = 0
KTH1 190721Z 24004KT 10/04 A2993 RMK A01 T00990038  RH  066%=      5-min Rain = 0
KTH1 190722Z 24004KT 10/04 A2993 RMK A01 T00990038  RH  066%=      5-min Rain = 0
KTH1 190723Z 24004KT 10/04 A2993 RMK A01 T00990038  RH  066%=      5-min Rain = 0
KTH1 190724Z 24004KT 10/04 A2993 RMK A01 T00990038  RH  066%=      5-min Rain = 0
KTH1 190725Z 24005KT 10/04 A2993 RMK A01 T00990039  RH  066%=      5-min Rain = 0
KTH1 190726Z 25004KT 10/04 A2993 RMK A01 T00980038  RH  066%=      5-min Rain = 0
KTH1 190727Z 25004KT 10/04 A2993 RMK A01 T00980038  RH  067%=      5-min Rain = 0
KTH1 190728Z 25004KT 10/04 A2993 RMK A01 T00970039  RH  067%=      5-min Rain = 0
KTH1 190729Z 25004KT 10/04 A2993 RMK A01 T00970038  RH  067%=      5-min Rain = 0
KTH1 190730Z 25004KT 10/04 A2993 RMK A01 T00960038  RH  067%=      5-min Rain = 0
KTH1 190731Z 25004KT 10/04 A2993 RMK A01 T00960038  RH  067%=      5-min Rain = 0
KTH1 190732Z 24005KT 10/04 A2993 RMK A01 T00960038  RH  067%=      5-min Rain = 0
KTH1 190733Z 25004KT 10/04 A2993 RMK A01 T00960037  RH  067%=      5-min Rain = 0
KTH1 190734Z 25004KT 10/04 A2993 RMK A01 T00960037  RH  067%=      5-min Rain = 0
KTH1 190735Z 24004KT 10/04 A2993 RMK A01 T00960036  RH  066%=      5-min Rain = 0
KTH1 190736Z 24004KT 10/04 A2993 RMK A01 T00960037  RH  066%=      5-min Rain = 0
KTH1 190737Z 24004KT 10/04 A2993 RMK A01 T00970037  RH  066%=      5-min Rain = 0
KTH1 190738Z 24004KT 10/04 A2993 RMK A01 T00970037  RH  067%=      5-min Rain = 0
KTH1 190739Z 24004KT 10/04 A2993 RMK A01 T00970038  RH  067%=      5-min Rain = 0
KTH1 190740Z 24004KT 10/04 A2993 RMK A01 T00960039  RH  067%=      5-min Rain = 0
KTH1 190741Z 24004KT 10/04 A2993 RMK A01 T00960041  RH  068%=      5-min Rain = 0
KTH1 190742Z 25004KT 10/04 A2993 RMK A01 T00960039  RH  068%=      5-min Rain = 0
KTH1 190743Z 25004KT 10/04 A2993 RMK A01 T00950038  RH  068%=      5-min Rain = 0
KTH1 190744Z 24004KT 09/04 A2993 RMK A01 T00940039  RH  068%=      5-min Rain = 0
KTH1 190745Z 24004KT 09/04 A2993 RMK A01 T00940039  RH  069%=      5-min Rain = 0
KTH1 190746Z 24004KT 09/04 A2993 RMK A01 T00930041  RH  070%=      5-min Rain = 0
KTH1 190747Z 24004KT 09/04 A2993 RMK A01 T00920043  RH  071%=      5-min Rain = 0
KTH1 190748Z 25003KT 09/05 A2993 RMK A01 T00920047  RH  074%=      5-min Rain = 0
KTH1 190749Z 25003KT 09/05 A2993 RMK A01 T00910054  RH  078%=      5-min Rain = 0
KTH1 190750Z 26003KT 09/06 A2993 RMK A01 T00900055  RH  078%=      5-min Rain = 0
KTH1 190751Z 27002KT 09/05 A2993 RMK A01 T00890053  RH  078%=      5-min Rain = 0
KTH1 190752Z 27002KT 09/05 A2993 RMK A01 T00880047  RH  075%=      5-min Rain = 0
KTH1 190753Z 28002KT 09/04 A2993 RMK A01 T00870043  RH  074%=      5-min Rain = 0
KTH1 190754Z 28002KT 09/04 A2993 RMK A01 T00870038  RH  072%=      5-min Rain = 0
KTH1 190755Z 28002KT 09/04 A2993 RMK A01 T00860037  RH  071%=      5-min Rain = 0
KTH1 190756Z 28002KT 09/04 A2993 RMK A01 T00850035  RH  071%=      5-min Rain = 0
KTH1 190757Z 29002KT 08/04 A2993 RMK A01 T00840035  RH  071%=      5-min Rain = 0
KTH1 190758Z 30002KT 08/04 A2993 RMK A01 T00840035  RH  071%=      5-min Rain = 0
KTH1 190759Z 31003KT 08/04 A2993 RMK A01 T00840035  RH  071%=      5-min Rain = 0
KTH1 190800Z 31003KT 08/03 A2993 RMK A01 T00840034  RH  071%=      5-min Rain = 0
KTH1 190801Z 30003KT 08/03 A2993 RMK A01 T00840034  RH  071%=      5-min Rain = 0
KTH1 190802Z 29003KT 08/03 A2993 RMK A01 T00840033  RH  071%=      5-min Rain = 0
KTH1 190803Z 29002KT 08/03 A2993 RMK A01 T00830034  RH  071%=      5-min Rain = 0
KTH1 190804Z 29002KT 08/03 A2993 RMK A01 T00830034  RH  071%=      5-min Rain = 0
KTH1 190805Z 29002KT 08/04 A2993 RMK A01 T00830035  RH  071%=      5-min Rain = 0
KTH1 190806Z 29003KT 08/03 A2993 RMK A01 T00830034  RH  071%=      5-min Rain = 0
KTH1 190807Z 28003KT 08/04 A2993 RMK A01 T00820035  RH  072%=      5-min Rain = 0
KTH1 190808Z 28003KT 08/04 A2993 RMK A01 T00820036  RH  073%=      5-min Rain = 0
KTH1 190809Z 27003KT 08/04 A2993 RMK A01 T00820037  RH  073%=      5-min Rain = 0
KTH1 190810Z 27004KT 08/04 A2993 RMK A01 T00810042  RH  076%=      5-min Rain = 0
KTH1 190811Z 27004KT 08/05 A2993 RMK A01 T00810047  RH  079%=      5-min Rain = 0
KTH1 190812Z 26004KT 08/05 A2993 RMK A01 T00810050  RH  081%=      5-min Rain = 0
KTH1 190813Z 26004KT 08/05 A2993 RMK A01 T00800051  RH  082%=      5-min Rain = 0
KTH1 190814Z 26004KT 08/05 A2993 RMK A01 T00800053  RH  083%=      5-min Rain = 0
KTH1 190815Z 26004KT 08/06 A2993 RMK A01 T00800055  RH  084%=      5-min Rain = 0
KTH1 190816Z 26004KT 08/05 A2993 RMK A01 T00800054  RH  084%=      5-min Rain = 0
KTH1 190817Z 26004KT 08/05 A2993 RMK A01 T00790054  RH  084%=      5-min Rain = 0
KTH1 190818Z 26004KT 08/05 A2993 RMK A01 T00790054  RH  084%=      5-min Rain = 0
KTH1 190819Z 26004KT 08/05 A2993 RMK A01 T00780053  RH  084%=      5-min Rain = 0
KTH1 190820Z 26005KT 08/05 A2993 RMK A01 T00780051  RH  083%=      5-min Rain = 0
KTH1 190821Z 26005KT 08/05 A2993 RMK A01 T00780050  RH  083%=      5-min Rain = 0
KTH1 190822Z 26005KT 08/05 A2993 RMK A01 T00780047  RH  081%=      5-min Rain = 0
KTH1 190823Z 26005KT 08/05 A2993 RMK A01 T00780046  RH  080%=      5-min Rain = 0
KTH1 190824Z 26005KT 08/05 A2993 RMK A01 T00790045  RH  079%=      5-min Rain = 0
KTH1 190825Z 26005KT 08/04 A2993 RMK A01 T00790043  RH  078%=      5-min Rain = 0
KTH1 190826Z 26005KT 08/04 A2993 RMK A01 T00800041  RH  077%=      5-min Rain = 0
KTH1 190827Z 25005KT 08/04 A2993 RMK A01 T00810040  RH  075%=      5-min Rain = 0
KTH1 190828Z 25005KT 08/04 A2993 RMK A01 T00820038  RH  074%=      5-min Rain = 0
KTH1 190829Z 25005KT 08/04 A2993 RMK A01 T00830037  RH  073%=      5-min Rain = 0
KTH1 190830Z 25005KT 08/04 A2993 RMK A01 T00840037  RH  072%=      5-min Rain = 0
KTH1 190831Z 24005KT 09/04 A2993 RMK A01 T00850035  RH  071%=      5-min Rain = 0
KTH1 190832Z 24005KT 09/04 A2993 RMK A01 T00860035  RH  070%=      5-min Rain = 0
KTH1 190833Z 24005KT 09/04 A2993 RMK A01 T00870035  RH  070%=      5-min Rain = 0
KTH1 190834Z 24005KT 09/04 A2993 RMK A01 T00880035  RH  069%=      5-min Rain = 0
KTH1 190835Z 24005KT 09/04 A2993 RMK A01 T00900035  RH  068%=      5-min Rain = 0
KTH1 190836Z 24005KT 09/03 A2993 RMK A01 T00900034  RH  068%=      5-min Rain = 0
KTH1 190837Z 23005KT 09/03 A2993 RMK A01 T00910034  RH  068%=      5-min Rain = 0
KTH1 190838Z 24005KT 09/03 A2993 RMK A01 T00910034  RH  068%=      5-min Rain = 0
KTH1 190839Z 23005KT 09/03 A2993 RMK A01 T00910034  RH  068%=      5-min Rain = 0
KTH1 190840Z 24005KT 09/04 A2993 RMK A01 T00910035  RH  068%=      5-min Rain = 0
KTH1 190841Z 24004KT 09/04 A2993 RMK A01 T00910035  RH  068%=      5-min Rain = 0
KTH1 190842Z 24004KT 09/04 A2993 RMK A01 T00900036  RH  069%=      5-min Rain = 0
KTH1 190843Z 24004KT 09/04 A2993 RMK A01 T00890037  RH  070%=      5-min Rain = 0
KTH1 190844Z 24004KT 09/04 A2993 RMK A01 T00880038  RH  071%=      5-min Rain = 0
KTH1 190845Z 24004KT 09/04 A2993 RMK A01 T00860040  RH  073%=      5-min Rain = 0
KTH1 190846Z 23005KT 08/04 A2993 RMK A01 T00840044  RH  076%=      5-min Rain = 0
KTH1 190847Z 23005KT 08/05 A2993 RMK A01 T00820045  RH  077%=      5-min Rain = 0
KTH1 190848Z 23005KT 08/04 A2993 RMK A01 T00800043  RH  078%=      5-min Rain = 0
KTH1 190849Z 23004KT 08/04 A2993 RMK A01 T00790042  RH  077%=      5-min Rain = 0
KTH1 190850Z 23004KT 08/04 A2993 RMK A01 T00780040  RH  077%=      5-min Rain = 0
KTH1 190851Z 22004KT 08/04 A2993 RMK A01 T00770041  RH  078%=      5-min Rain = 0
KTH1 190852Z 22004KT 08/04 A2993 RMK A01 T00760041  RH  078%=      5-min Rain = 0
KTH1 190853Z 22004KT 08/04 A2993 RMK A01 T00750039  RH  078%=      5-min Rain = 0
KTH1 190854Z 22003KT 08/04 A2993 RMK A01 T00750039  RH  078%=      5-min Rain = 0
KTH1 190855Z 21002KT 08/04 A2993 RMK A01 T00750039  RH  078%=      5-min Rain = 0
KTH1 190856Z 19002KT 07/04 A2993 RMK A01 T00740038  RH  078%=      5-min Rain = 0
KTH1 190857Z 18002KT 07/04 A2993 RMK A01 T00740038  RH  078%=      5-min Rain = 0
KTH1 190858Z 18002KT 07/04 A2993 RMK A01 T00740038  RH  078%=      5-min Rain = 0
KTH1 190859Z 20003KT 07/04 A2993 RMK A01 T00740038  RH  078%=      5-min Rain = 0
KTH1 190900Z 19003KT 07/04 A2993 RMK A01 T00740037  RH  077%=      5-min Rain = 0
KTH1 190901Z 20004KT 08/04 A2993 RMK A01 T00760035  RH  075%=      5-min Rain = 0
KTH1 190902Z 20004KT 08/03 A2993 RMK A01 T00780034  RH  073%=      5-min Rain = 0
KTH1 190903Z 21004KT 08/03 A2993 RMK A01 T00810033  RH  072%=      5-min Rain = 0
KTH1 190904Z 22003KT 08/03 A2993 RMK A01 T00830032  RH  070%=      5-min Rain = 0
KTH1 190905Z 22003KT 08/03 A2993 RMK A01 T00840033  RH  070%=      5-min Rain = 0
KTH1 190906Z 22003KT 08/04 A2993 RMK A01 T00840037  RH  072%=      5-min Rain = 0
KTH1 190907Z 22004KT 08/04 A2993 RMK A01 T00840037  RH  072%=      5-min Rain = 0
KTH1 190908Z 22004KT 08/04 A2993 RMK A01 T00840038  RH  073%=      5-min Rain = 0
KTH1 190909Z 22004KT 09/04 A2993 RMK A01 T00850036  RH  071%=      5-min Rain = 0
KTH1 190910Z 21004KT 09/04 A2993 RMK A01 T00850035  RH  070%=      5-min Rain = 0
KTH1 190911Z 21003KT 09/03 A2993 RMK A01 T00870033  RH  069%=      5-min Rain = 0
KTH1 190912Z 20003KT 09/03 A2993 RMK A01 T00880033  RH  068%=      5-min Rain = 0
KTH1 190913Z 20003KT 09/03 A2993 RMK A01 T00900033  RH  067%=      5-min Rain = 0
KTH1 190914Z 21004KT 09/03 A2993 RMK A01 T00930032  RH  066%=      5-min Rain = 0
KTH1 190915Z 21004KT 10/03 A2993 RMK A01 T00960032  RH  065%=      5-min Rain = 0
KTH1 190916Z 22004KT 10/03 A2993 RMK A01 T00970032  RH  064%=      5-min Rain = 0
KTH1 190917Z 22004KT 10/03 A2993 RMK A01 T00990033  RH  063%=      5-min Rain = 0
KTH1 190918Z 22005KT 10/03 A2993 RMK A01 T01000033  RH  063%=      5-min Rain = 0
KTH1 190919Z 22005KT 10/03 A2993 RMK A01 T01030034  RH  062%=      5-min Rain = 0
KTH1 190920Z 22006KT 10/04 A2993 RMK A01 T01040035  RH  062%=      5-min Rain = 0
KTH1 190921Z 23005KT 11/03 A2993 RMK A01 T01050034  RH  062%=      5-min Rain = 0
KTH1 190922Z 22004KT 11/04 A2993 RMK A01 T01050035  RH  062%=      5-min Rain = 0
KTH1 190923Z 23005KT 11/04 A2993 RMK A01 T01060035  RH  061%=      5-min Rain = 0
KTH1 190924Z 23005KT 11/04 A2993 RMK A01 T01070035  RH  061%=      5-min Rain = 0
KTH1 190925Z 23004KT 11/04 A2993 RMK A01 T01070036  RH  061%=      5-min Rain = 0
KTH1 190926Z 23004KT 11/04 A2993 RMK A01 T01080038  RH  062%=      5-min Rain = 0
KTH1 190927Z 23004KT 11/04 A2993 RMK A01 T01080039  RH  062%=      5-min Rain = 0
KTH1 190928Z 23004KT 11/04 A2993 RMK A01 T01080041  RH  063%=      5-min Rain = 0
KTH1 190929Z 23005KT 11/04 A2993 RMK A01 T01060042  RH  065%=      5-min Rain = 0
KTH1 190930Z 24005KT 10/05 A2993 RMK A01 T01040045  RH  067%=      5-min Rain = 0
KTH1 190931Z 24005KT 10/05 A2993 RMK A01 T01030048  RH  069%=      5-min Rain = 0
KTH1 190932Z 23006KT 10/05 A2993 RMK A01 T01000048  RH  070%=      5-min Rain = 0
KTH1 190933Z 23006KT 10/05 A2993 RMK A01 T00990046  RH  070%=      5-min Rain = 0
KTH1 190934Z 23005KT 10/05 A2993 RMK A01 T00980045  RH  069%=      5-min Rain = 0
KTH1 190935Z 23005KT 10/05 A2993 RMK A01 T00980046  RH  070%=      5-min Rain = 0
KTH1 190936Z 23006KT 10/05 A2993 RMK A01 T00980046  RH  070%=      5-min Rain = 0
KTH1 190937Z 23005KT 10/05 A2993 RMK A01 T00990045  RH  069%=      5-min Rain = 0
KTH1 190938Z 23006KT 10/04 A2993 RMK A01 T00990042  RH  068%=      5-min Rain = 0
KTH1 190939Z 23007KT 10/04 A2993 RMK A01 T01020038  RH  065%=      5-min Rain = 0
KTH1 190940Z 23007KT 11/04 A2993 RMK A01 T01050038  RH  063%=      5-min Rain = 0
KTH1 190941Z 23007KT 11/04 A2993 RMK A01 T01060037  RH  062%=      5-min Rain = 0
KTH1 190942Z 23007KT 11/04 A2993 RMK A01 T01090037  RH  061%=      5-min Rain = 0
KTH1 190943Z 23006KT 11/04 A2993 RMK A01 T01100036  RH  060%=      5-min Rain = 0
KTH1 190944Z 23007KT 11/04 A2993 RMK A01 T01110037  RH  060%=      5-min Rain = 0
KTH1 190945Z 23006KT 11/04 A2993 RMK A01 T01110037  RH  060%=      5-min Rain = 0
KTH1 190946Z 24007KT 11/04 A2993 RMK A01 T01110037  RH  060%=      5-min Rain = 0
KTH1 190947Z 24007KT 11/04 A2993 RMK A01 T01110037  RH  060%=      5-min Rain = 0
KTH1 190948Z 24007KT 11/04 A2993 RMK A01 T01110037  RH  060%=      5-min Rain = 0
KTH1 190949Z 24007KT 11/04 A2993 RMK A01 T01110038  RH  061%=      5-min Rain = 0
KTH1 190950Z 24007KT 11/04 A2993 RMK A01 T01100039  RH  062%=      5-min Rain = 0
KTH1 190951Z 24007KT 11/04 A2993 RMK A01 T01100041  RH  062%=      5-min Rain = 0
KTH1 190952Z 24007KT 11/04 A2992 RMK A01 T01090044  RH  064%=      5-min Rain = 0
KTH1 190953Z 24007KT 11/04 A2992 RMK A01 T01080044  RH  065%=      5-min Rain = 0
KTH1 190954Z 24007KT 11/04 A2992 RMK A01 T01070044  RH  065%=      5-min Rain = 0
KTH1 190955Z 24007KT 11/04 A2992 RMK A01 T01070044  RH  065%=      5-min Rain = 0
KTH1 190956Z 24007KT 11/04 A2992 RMK A01 T01060043  RH  065%=      5-min Rain = 0
KTH1 190957Z 24007KT 11/04 A2992 RMK A01 T01060042  RH  065%=      5-min Rain = 0
KTH1 190958Z 24007KT 11/04 A2992 RMK A01 T01060042  RH  064%=      5-min Rain = 0
KTH1 190959Z 24007KT 11/04 A2992 RMK A01 T01060041  RH  064%=      5-min Rain = 0
KTH1 191000Z 24007KT 11/04 A2992 RMK A01 T01070039  RH  063%=      5-min Rain = 0
KTH1 191001Z 23007KT 11/04 A2992 RMK A01 T01070038  RH  062%=      5-min Rain = 0
KTH1 191002Z 24007KT 11/04 A2992 RMK A01 T01070037  RH  062%=      5-min Rain = 0
KTH1 191003Z 23007KT 11/04 A2992 RMK A01 T01080037  RH  062%=      5-min Rain = 0
KTH1 191004Z 24007KT 11/04 A2992 RMK A01 T01080036  RH  061%=      5-min Rain = 0
KTH1 191005Z 24007KT 11/04 A2992 RMK A01 T01080037  RH  061%=      5-min Rain = 0
KTH1 191006Z 24007KT 11/04 A2992 RMK A01 T01080037  RH  061%=      5-min Rain = 0
KTH1 191007Z 24006KT 11/04 A2992 RMK A01 T01080038  RH  062%=      5-min Rain = 0
KTH1 191008Z 24007KT 11/04 A2992 RMK A01 T01080038  RH  062%=      5-min Rain = 0
KTH1 191009Z 24006KT 11/04 A2992 RMK A01 T01070038  RH  062%=      5-min Rain = 0
KTH1 191010Z 24006KT 11/04 A2992 RMK A01 T01060039  RH  063%=      5-min Rain = 0
KTH1 191011Z 24007KT 11/04 A2992 RMK A01 T01060039  RH  063%=      5-min Rain = 0
KTH1 191012Z 24007KT 11/04 A2992 RMK A01 T01050039  RH  063%=      5-min Rain = 0
KTH1 191013Z 24007KT 11/04 A2992 RMK A01 T01050039  RH  064%=      5-min Rain = 0
KTH1 191014Z 24007KT 11/04 A2992 RMK A01 T01050039  RH  064%=      5-min Rain = 0
KTH1 191015Z 24007KT 11/04 A2992 RMK A01 T01050039  RH  064%=      5-min Rain = 0
KTH1 191016Z 24007KT 11/04 A2992 RMK A01 T01050038  RH  063%=      5-min Rain = 0
KTH1 191017Z 24007KT 11/04 A2992 RMK A01 T01050038  RH  063%=      5-min Rain = 0
KTH1 191018Z 24007KT 11/04 A2992 RMK A01 T01050038  RH  063%=      5-min Rain = 0
KTH1 191019Z 24006KT 11/04 A2992 RMK A01 T01050039  RH  064%=      5-min Rain = 0
KTH1 191020Z 24006KT 10/04 A2992 RMK A01 T01040044  RH  066%=      5-min Rain = 0
KTH1 191021Z 24006KT 10/05 A2992 RMK A01 T01030050  RH  070%=      5-min Rain = 0
KTH1 191022Z 24006KT 10/05 A2992 RMK A01 T01010052  RH  071%=      5-min Rain = 0
KTH1 191023Z 24006KT 10/05 A2992 RMK A01 T01000052  RH  072%=      5-min Rain = 0
KTH1 191024Z 24006KT 10/05 A2992 RMK A01 T00990050  RH  072%=      5-min Rain = 0
KTH1 191025Z 24006KT 10/05 A2992 RMK A01 T00990052  RH  072%=      5-min Rain = 0
KTH1 191026Z 24006KT 10/05 A2993 RMK A01 T00980051  RH  072%=      5-min Rain = 0
KTH1 191027Z 24006KT 10/05 A2993 RMK A01 T00970050  RH  073%=      5-min Rain = 0
KTH1 191028Z 24006KT 10/05 A2993 RMK A01 T00960052  RH  074%=      5-min Rain = 0
KTH1 191029Z 24006KT 10/05 A2993 RMK A01 T00960052  RH  074%=      5-min Rain = 0
KTH1 191030Z 24006KT 10/05 A2993 RMK A01 T00960051  RH  073%=      5-min Rain = 0
KTH1 191031Z 24006KT 10/05 A2993 RMK A01 T00960050  RH  073%=      5-min Rain = 0
KTH1 191032Z 24006KT 10/05 A2993 RMK A01 T00960050  RH  073%=      5-min Rain = 0
KTH1 191033Z 24006KT 10/05 A2993 RMK A01 T00960049  RH  073%=      5-min Rain = 0
KTH1 191034Z 24007KT 10/05 A2993 RMK A01 T00960048  RH  072%=      5-min Rain = 0
KTH1 191035Z 24007KT 10/05 A2993 RMK A01 T00960045  RH  070%=      5-min Rain = 0
KTH1 191036Z 24007KT 10/04 A2993 RMK A01 T00970042  RH  069%=      5-min Rain = 0
KTH1 191037Z 24007KT 10/04 A2993 RMK A01 T00980040  RH  067%=      5-min Rain = 0
KTH1 191038Z 24007KT 10/04 A2993 RMK A01 T01000041  RH  067%=      5-min Rain = 0
KTH1 191039Z 24007KT 10/04 A2993 RMK A01 T01000040  RH  066%=      5-min Rain = 0
KTH1 191040Z 24007KT 10/04 A2993 RMK A01 T01010041  RH  066%=      5-min Rain = 0
KTH1 191041Z 24008KT 10/04 A2993 RMK A01 T01020039  RH  065%=      5-min Rain = 0
KTH1 191042Z 24007KT 10/04 A2993 RMK A01 T01040039  RH  064%=      5-min Rain = 0
KTH1 191043Z 24007KT 11/04 A2993 RMK A01 T01050038  RH  063%=      5-min Rain = 0
KTH1 191044Z 24007KT 11/04 A2993 RMK A01 T01050039  RH  064%=      5-min Rain = 0
KTH1 191045Z 24007KT 11/04 A2993 RMK A01 T01060040  RH  064%=      5-min Rain = 0
KTH1 191046Z 25006KT 11/04 A2993 RMK A01 T01070042  RH  064%=      5-min Rain = 0
KTH1 191047Z 25005KT 11/05 A2993 RMK A01 T01070048  RH  067%=      5-min Rain = 0
KTH1 191048Z 25005KT 11/06 A2993 RMK A01 T01060055  RH  070%=      5-min Rain = 0
KTH1 191049Z 26004KT 10/05 A2993 RMK A01 T01040052  RH  070%=      5-min Rain = 0
KTH1 191050Z 27004KT 10/05 A2993 RMK A01 T01030049  RH  069%=      5-min Rain = 0
KTH1 191051Z 27004KT 10/05 A2993 RMK A01 T01020046  RH  068%=      5-min Rain = 0
KTH1 191052Z 28004KT 10/05 A2993 RMK A01 T01010045  RH  068%=      5-min Rain = 0
KTH1 191053Z 29003KT 10/04 A2994 RMK A01 T00990042  RH  068%=      5-min Rain = 0
KTH1 191054Z 31003KT 10/04 A2994 RMK A01 T00950037  RH  067%=      5-min Rain = 0
KTH1 191055Z 31003KT 09/03 A2994 RMK A01 T00920034  RH  067%=      5-min Rain = 0
KTH1 191056Z 32003KT 09/03 A2994 RMK A01 T00900033  RH  068%=      5-min Rain = 0
KTH1 191057Z 31004KT 09/03 A2994 RMK A01 T00890033  RH  068%=      5-min Rain = 0
KTH1 191058Z 31004KT 09/03 A2994 RMK A01 T00880033  RH  068%=      5-min Rain = 0
KTH1 191059Z 30004KT 09/03 A2994 RMK A01 T00880033  RH  068%=      5-min Rain = 0
KTH1 191100Z 29004KT 09/03 A2994 RMK A01 T00890034  RH  068%=      5-min Rain = 0
KTH1 191101Z 29004KT 09/03 A2994 RMK A01 T00890034  RH  068%=      5-min Rain = 0
KTH1 191102Z 29004KT 09/04 A2994 RMK A01 T00900036  RH  069%=      5-min Rain = 0
KTH1 191103Z 31004KT 09/04 A2994 RMK A01 T00900037  RH  069%=      5-min Rain = 0
KTH1 191104Z 32003KT 09/04 A2994 RMK A01 T00890037  RH  070%=      5-min Rain = 0
KTH1 191105Z 31004KT 09/03 A2994 RMK A01 T00880033  RH  068%=      5-min Rain = 0
KTH1 191106Z 31004KT 09/03 A2994 RMK A01 T00870033  RH  068%=      5-min Rain = 0
KTH1 191107Z 30004KT 09/03 A2994 RMK A01 T00880033  RH  068%=      5-min Rain = 0
KTH1 191108Z 29004KT 09/03 A2994 RMK A01 T00870033  RH  069%=      5-min Rain = 0
KTH1 191109Z 28004KT 09/03 A2994 RMK A01 T00870034  RH  069%=      5-min Rain = 0
KTH1 191110Z 28005KT 09/04 A2994 RMK A01 T00860036  RH  070%=      5-min Rain = 0
KTH1 191111Z 28004KT 09/04 A2994 RMK A01 T00860037  RH  071%=      5-min Rain = 0
KTH1 191112Z 28004KT 09/04 A2994 RMK A01 T00860037  RH  071%=      5-min Rain = 0
KTH1 191113Z 28004KT 09/04 A2994 RMK A01 T00860039  RH  072%=      5-min Rain = 0
KTH1 191114Z 28004KT 09/04 A2994 RMK A01 T00870043  RH  074%=      5-min Rain = 0
KTH1 191115Z 28004KT 09/05 A2994 RMK A01 T00870046  RH  075%=      5-min Rain = 0
KTH1 191116Z 28003KT 09/05 A2994 RMK A01 T00880047  RH  075%=      5-min Rain = 0
KTH1 191117Z 27004KT 09/05 A2994 RMK A01 T00880046  RH  075%=      5-min Rain = 0
KTH1 191118Z 27003KT 09/05 A2994 RMK A01 T00880047  RH  075%=      5-min Rain = 0
KTH1 191119Z 28003KT 09/05 A2994 RMK A01 T00880046  RH  075%=      5-min Rain = 0
KTH1 191120Z 27003KT 09/04 A2994 RMK A01 T00890043  RH  073%=      5-min Rain = 0
KTH1 191121Z 27002KT 09/04 A2994 RMK A01 T00900041  RH  071%=      5-min Rain = 0
KTH1 191122Z 28002KT 09/04 A2994 RMK A01 T00900042  RH  072%=      5-min Rain = 0
KTH1 191123Z 28002KT 09/05 A2994 RMK A01 T00890045  RH  074%=      5-min Rain = 0
KTH1 191124Z 28002KT 09/05 A2994 RMK A01 T00890046  RH  074%=      5-min Rain = 0
KTH1 191125Z 28002KT 09/05 A2994 RMK A01 T00890045  RH  074%=      5-min Rain = 0
KTH1 191126Z 27002KT 09/04 A2994 RMK A01 T00880044  RH  074%=      5-min Rain = 0
KTH1 191127Z 26003KT 09/05 A2994 RMK A01 T00870045  RH  075%=      5-min Rain = 0
KTH1 191128Z 26003KT 09/05 A2994 RMK A01 T00870049  RH  077%=      5-min Rain = 0
KTH1 191129Z 25003KT 09/05 A2994 RMK A01 T00860050  RH  078%=      5-min Rain = 0
KTH1 191130Z 25004KT 09/05 A2994 RMK A01 T00860049  RH  078%=      5-min Rain = 0
KTH1 191131Z 25004KT 09/05 A2994 RMK A01 T00850048  RH  078%=      5-min Rain = 0
KTH1 191132Z 25004KT 09/05 A2994 RMK A01 T00850047  RH  077%=      5-min Rain = 0
KTH1 191133Z 25004KT 08/05 A2994 RMK A01 T00840046  RH  077%=      5-min Rain = 0
KTH1 191134Z 25004KT 08/05 A2994 RMK A01 T00840047  RH  077%=      5-min Rain = 0
KTH1 191135Z 26004KT 08/05 A2994 RMK A01 T00830048  RH  078%=      5-min Rain = 0
KTH1 191136Z 26004KT 08/05 A2994 RMK A01 T00830049  RH  079%=      5-min Rain = 0
KTH1 191137Z 26003KT 08/05 A2994 RMK A01 T00820050  RH  080%=      5-min Rain = 0
KTH1 191138Z 26003KT 08/05 A2994 RMK A01 T00810050  RH  081%=      5-min Rain = 0
KTH1 191139Z 26003KT 08/05 A2994 RMK A01 T00810050  RH  081%=      5-min Rain = 0
KTH1 191140Z 26002KT 08/05 A2995 RMK A01 T00800050  RH  081%=      5-min Rain = 0
KTH1 191141Z 27002KT 08/05 A2995 RMK A01 T00800051  RH  082%=      5-min Rain = 0
KTH1 191142Z 28001KT 08/05 A2995 RMK A01 T00790050  RH  082%=      5-min Rain = 0
KTH1 191143Z 30001KT 08/05 A2995 RMK A01 T00790050  RH  082%=      5-min Rain = 0
KTH1 191144Z 27001KT 08/05 A2995 RMK A01 T00790048  RH  081%=      5-min Rain = 0
KTH1 191145Z 27002KT 08/04 A2995 RMK A01 T00780044  RH  079%=      5-min Rain = 0
KTH1 191146Z 27001KT 08/04 A2995 RMK A01 T00780041  RH  077%=      5-min Rain = 0
KTH1 191147Z 28002KT 08/04 A2995 RMK A01 T00790038  RH  076%=      5-min Rain = 0
KTH1 191148Z 30001KT 08/04 A2995 RMK A01 T00790035  RH  074%=      5-min Rain = 0
KTH1 191149Z 31001KT 08/03 A2995 RMK A01 T00780032  RH  073%=      5-min Rain = 0
KTH1 191150Z 34001KT 08/03 A2995 RMK A01 T00770031  RH  072%=      5-min Rain = 0
KTH1 191151Z 34002KT 08/03 A2995 RMK A01 T00760030  RH  073%=      5-min Rain = 0
KTH1 191152Z 32001KT 07/03 A2995 RMK A01 T00740029  RH  073%=      5-min Rain = 0
KTH1 191153Z 31001KT 07/03 A2995 RMK A01 T00730028  RH  073%=      5-min Rain = 0
KTH1 191154Z 31001KT 07/03 A2995 RMK A01 T00710028  RH  074%=      5-min Rain = 0
KTH1 191155Z 30001KT 07/03 A2995 RMK A01 T00700028  RH  074%=      5-min Rain = 0
KTH1 191156Z 30001KT 07/03 A2995 RMK A01 T00700028  RH  075%=      5-min Rain = 0
KTH1 191157Z 32002KT 07/03 A2995 RMK A01 T00700029  RH  075%=      5-min Rain = 0
KTH1 191158Z 32001KT 07/03 A2995 RMK A01 T00710030  RH  075%=      5-min Rain = 0
KTH1 191159Z 32001KT 07/03 A2995 RMK A01 T00720030  RH  074%=      5-min Rain = 0
KTH1 191200Z 32001KT 07/03 A2995 RMK A01 T00730029  RH  074%=      5-min Rain = 0
KTH1 191201Z 31001KT 07/03 A2995 RMK A01 T00730029  RH  074%=      5-min Rain = 0
KTH1 191202Z 35001KT 07/03 A2995 RMK A01 T00730029  RH  074%=      5-min Rain = 0
KTH1 191203Z 00001KT 07/03 A2995 RMK A01 T00730029  RH  074%=      5-min Rain = 0
KTH1 191204Z 00001KT 07/03 A2995 RMK A01 T00730029  RH  074%=      5-min Rain = 0
KTH1 191205Z 03001KT 07/03 A2995 RMK A01 T00730029  RH  074%=      5-min Rain = 0
KTH1 191206Z 05001KT 07/03 A2995 RMK A01 T00730029  RH  074%=      5-min Rain = 0
KTH1 191207Z 05001KT 07/03 A2995 RMK A01 T00730029  RH  074%=      5-min Rain = 0
KTH1 191208Z 04001KT 07/03 A2995 RMK A01 T00730030  RH  074%=      5-min Rain = 0
KTH1 191209Z 03001KT 07/03 A2995 RMK A01 T00730030  RH  074%=      5-min Rain = 0
KTH1 191210Z 03001KT 07/03 A2995 RMK A01 T00730029  RH  074%=      5-min Rain = 0
KTH1 191211Z 03000KT 07/03 A2995 RMK A01 T00730029  RH  073%=      5-min Rain = 0
KTH1 191212Z 00000KT 07/03 A2995 RMK A01 T00740029  RH  073%=      5-min Rain = 0
KTH1 191213Z 00000KT 07/03 A2995 RMK A01 T00730029  RH  074%=      5-min Rain = 0
KTH1 191214Z 00000KT 07/03 A2995 RMK A01 T00710029  RH  074%=      5-min Rain = 0
KTH1 191215Z 00000KT 07/03 A2996 RMK A01 T00710029  RH  075%=      5-min Rain = 0
KTH1 191216Z 00000KT 07/03 A2996 RMK A01 T00690029  RH  075%=      5-min Rain = 0
KTH1 191217Z 01000KT 07/03 A2996 RMK A01 T00680028  RH  076%=      5-min Rain = 0
KTH1 191218Z 00000KT 07/03 A2995 RMK A01 T00670028  RH  076%=      5-min Rain = 0
KTH1 191219Z 03000KT 07/03 A2995 RMK A01 T00660028  RH  077%=      5-min Rain = 0
KTH1 191220Z 03000KT 07/03 A2996 RMK A01 T00660029  RH  077%=      5-min Rain = 0
KTH1 191221Z 00000KT 07/03 A2996 RMK A01 T00660029  RH  077%=      5-min Rain = 0
KTH1 191222Z 00000KT 07/03 A2996 RMK A01 T00670029  RH  077%=      5-min Rain = 0
KTH1 191223Z 00000KT 07/03 A2996 RMK A01 T00680030  RH  077%=      5-min Rain = 0
KTH1 191224Z 00000KT 07/03 A2996 RMK A01 T00690030  RH  076%=      5-min Rain = 0
KTH1 191225Z 00000KT 07/03 A2996 RMK A01 T00690029  RH  076%=      5-min Rain = 0
KTH1 191226Z 00000KT 07/03 A2996 RMK A01 T00690029  RH  076%=      5-min Rain = 0
KTH1 191227Z 00000KT 07/03 A2996 RMK A01 T00690029  RH  076%=      5-min Rain = 0
KTH1 191228Z 00000KT 07/03 A2996 RMK A01 T00690029  RH  076%=      5-min Rain = 0
KTH1 191229Z 00000KT 07/03 A2996 RMK A01 T00690030  RH  076%=      5-min Rain = 0
KTH1 191230Z 34000KT 07/03 A2996 RMK A01 T00690029  RH  076%=      5-min Rain = 0
KTH1 191231Z 24000KT 07/03 A2996 RMK A01 T00690029  RH  076%=      5-min Rain = 0
KTH1 191232Z 30000KT 07/03 A2996 RMK A01 T00690028  RH  075%=      5-min Rain = 0
KTH1 191233Z 04000KT 07/03 A2996 RMK A01 T00680029  RH  076%=      5-min Rain = 0
KTH1 191234Z 00000KT 07/03 A2996 RMK A01 T00670028  RH  076%=      5-min Rain = 0
KTH1 191235Z 03000KT 07/03 A2996 RMK A01 T00670029  RH  077%=      5-min Rain = 0
KTH1 191236Z 02000KT 07/03 A2996 RMK A01 T00670029  RH  077%=      5-min Rain = 0
KTH1 191237Z 01000KT 07/03 A2996 RMK A01 T00660029  RH  077%=      5-min Rain = 0
KTH1 191238Z 01000KT 07/03 A2996 RMK A01 T00660029  RH  077%=      5-min Rain = 0
KTH1 191239Z 01001KT 07/03 A2996 RMK A01 T00650028  RH  077%=      5-min Rain = 0
KTH1 191240Z 01000KT 07/03 A2996 RMK A01 T00650028  RH  077%=      5-min Rain = 0
KTH1 191241Z 00000KT 06/03 A2996 RMK A01 T00640028  RH  078%=      5-min Rain = 0
KTH1 191242Z 01000KT 06/03 A2996 RMK A01 T00640028  RH  078%=      5-min Rain = 0
KTH1 191243Z 00000KT 06/03 A2996 RMK A01 T00630028  RH  078%=      5-min Rain = 0
KTH1 191244Z 00000KT 06/03 A2996 RMK A01 T00630028  RH  079%=      5-min Rain = 0
KTH1 191245Z 00000KT 06/03 A2996 RMK A01 T00620028  RH  079%=      5-min Rain = 0
KTH1 191246Z 00000KT 06/03 A2996 RMK A01 T00630029  RH  079%=      5-min Rain = 0
KTH1 191247Z 00000KT 06/03 A2996 RMK A01 T00630030  RH  080%=      5-min Rain = 0
KTH1 191248Z 15001KT 06/03 A2996 RMK A01 T00630032  RH  081%=      5-min Rain = 0
KTH1 191249Z 15001KT 06/03 A2996 RMK A01 T00630033  RH  081%=      5-min Rain = 0
KTH1 191250Z 15001KT 06/04 A2996 RMK A01 T00630036  RH  082%=      5-min Rain = 0
KTH1 191251Z 15000KT 06/04 A2996 RMK A01 T00640037  RH  083%=      5-min Rain = 0
KTH1 191252Z 00000KT 06/04 A2996 RMK A01 T00630038  RH  084%=      5-min Rain = 0
KTH1 191253Z 00000KT 06/04 A2996 RMK A01 T00630040  RH  085%=      5-min Rain = 0
KTH1 191254Z 00000KT 06/04 A2996 RMK A01 T00630041  RH  086%=      5-min Rain = 0
KTH1 191255Z 00000KT 06/04 A2996 RMK A01 T00630041  RH  086%=      5-min Rain = 0
KTH1 191256Z 00000KT 06/04 A2996 RMK A01 T00630041  RH  086%=      5-min Rain = 0
KTH1 191257Z 00000KT 06/04 A2996 RMK A01 T00620042  RH  087%=      5-min Rain = 0
KTH1 191258Z 00000KT 06/04 A2996 RMK A01 T00630043  RH  087%=      5-min Rain = 0
KTH1 191259Z 15000KT 06/04 A2996 RMK A01 T00620043  RH  087%=      5-min Rain = 0
KTH1 191300Z 15000KT 06/04 A2996 RMK A01 T00620043  RH  088%=      5-min Rain = 0
KTH1 191301Z 15000KT 06/04 A2996 RMK A01 T00620044  RH  088%=      5-min Rain = 0
KTH1 191302Z 15000KT 06/04 A2997 RMK A01 T00610043  RH  088%=      5-min Rain = 0
KTH1 191303Z 16001KT 06/04 A2997 RMK A01 T00610041  RH  087%=      5-min Rain = 0
KTH1 191304Z 16000KT 06/04 A2997 RMK A01 T00610041  RH  088%=      5-min Rain = 0
KTH1 191305Z 00000KT 06/04 A2997 RMK A01 T00610043  RH  089%=      5-min Rain = 0
KTH1 191306Z 00000KT 06/04 A2997 RMK A01 T00610044  RH  089%=      5-min Rain = 0
KTH1 191307Z 16000KT 06/05 A2997 RMK A01 T00610045  RH  090%=      5-min Rain = 0
KTH1 191308Z 15001KT 06/05 A2997 RMK A01 T00610045  RH  090%=      5-min Rain = 0
KTH1 191309Z 15001KT 06/05 A2997 RMK A01 T00600045  RH  090%=      5-min Rain = 0
KTH1 191310Z 15001KT 06/05 A2997 RMK A01 T00600045  RH  090%=      5-min Rain = 0
KTH1 191311Z 17001KT 06/05 A2997 RMK A01 T00600045  RH  090%=      5-min Rain = 0
KTH1 191312Z 17001KT 06/05 A2997 RMK A01 T00600045  RH  090%=      5-min Rain = 0
KTH1 191313Z 17001KT 06/05 A2997 RMK A01 T00600045  RH  090%=      5-min Rain = 0
KTH1 191314Z 17001KT 06/04 A2997 RMK A01 T00600044  RH  090%=      5-min Rain = 0
KTH1 191315Z 15001KT 06/04 A2997 RMK A01 T00590043  RH  090%=      5-min Rain = 0
KTH1 191316Z 15001KT 06/04 A2997 RMK A01 T00590043  RH  090%=      5-min Rain = 0
KTH1 191317Z 15000KT 06/04 A2997 RMK A01 T00590043  RH  090%=      5-min Rain = 0
KTH1 191318Z 00000KT 06/04 A2997 RMK A01 T00580042  RH  089%=      5-min Rain = 0
KTH1 191319Z 00000KT 06/04 A2997 RMK A01 T00580042  RH  089%=      5-min Rain = 0
KTH1 191320Z 15001KT 06/04 A2997 RMK A01 T00580042  RH  089%=      5-min Rain = 0
KTH1 191321Z 15002KT 06/04 A2997 RMK A01 T00580041  RH  089%=      5-min Rain = 0
KTH1 191322Z 15001KT 06/04 A2997 RMK A01 T00570040  RH  089%=      5-min Rain = 0
KTH1 191323Z 15001KT 06/04 A2997 RMK A01 T00570040  RH  089%=      5-min Rain = 0
KTH1 191324Z 15001KT 06/04 A2997 RMK A01 T00570040  RH  089%=      5-min Rain = 0
KTH1 191325Z 16001KT 06/04 A2997 RMK A01 T00560040  RH  089%=      5-min Rain = 0
KTH1 191326Z 19001KT 06/04 A2997 RMK A01 T00570040  RH  089%=      5-min Rain = 0
KTH1 191327Z 19001KT 06/04 A2997 RMK A01 T00570041  RH  090%=      5-min Rain = 0
KTH1 191328Z 19001KT 06/04 A2997 RMK A01 T00570041  RH  090%=      5-min Rain = 0
KTH1 191329Z 19001KT 06/04 A2997 RMK A01 T00570040  RH  089%=      5-min Rain = 0
KTH1 191330Z 00000KT 06/04 A2997 RMK A01 T00560039  RH  089%=      5-min Rain = 0
KTH1 191331Z 19000KT 06/04 A2997 RMK A01 T00560039  RH  089%=      5-min Rain = 0
KTH1 191332Z 19000KT 06/04 A2997 RMK A01 T00560039  RH  089%=      5-min Rain = 0
KTH1 191333Z 00000KT 06/04 A2997 RMK A01 T00560040  RH  089%=      5-min Rain = 0
KTH1 191334Z 00000KT 06/04 A2997 RMK A01 T00550039  RH  089%=      5-min Rain = 0
KTH1 191335Z 24000KT 06/04 A2997 RMK A01 T00550038  RH  088%=      5-min Rain = 0
KTH1 191336Z 22000KT 06/04 A2997 RMK A01 T00550037  RH  088%=      5-min Rain = 0
KTH1 191337Z 19001KT 06/04 A2997 RMK A01 T00550037  RH  088%=      5-min Rain = 0
KTH1 191338Z 18001KT 06/04 A2997 RMK A01 T00550036  RH  088%=      5-min Rain = 0
KTH1 191339Z 18002KT 05/04 A2997 RMK A01 T00540035  RH  087%=      5-min Rain = 0
KTH1 191340Z 18001KT 05/03 A2997 RMK A01 T00540034  RH  087%=      5-min Rain = 0
KTH1 191341Z 19001KT 05/04 A2997 RMK A01 T00540035  RH  087%=      5-min Rain = 0
KTH1 191342Z 20001KT 06/04 A2997 RMK A01 T00550035  RH  087%=      5-min Rain = 0
KTH1 191343Z 20001KT 06/03 A2997 RMK A01 T00550034  RH  087%=      5-min Rain = 0
KTH1 191344Z 20001KT 06/04 A2997 RMK A01 T00550035  RH  087%=      5-min Rain = 0
KTH1 191345Z 20001KT 06/04 A2997 RMK A01 T00550035  RH  087%=      5-min Rain = 0
KTH1 191346Z 20001KT 06/04 A2997 RMK A01 T00550035  RH  087%=      5-min Rain = 0
KTH1 191347Z 20002KT 06/04 A2997 RMK A01 T00560036  RH  087%=      5-min Rain = 0
KTH1 191348Z 20002KT 06/04 A2997 RMK A01 T00570036  RH  087%=      5-min Rain = 0
KTH1 191349Z 20002KT 06/04 A2997 RMK A01 T00570036  RH  087%=      5-min Rain = 0
KTH1 191350Z 20002KT 06/04 A2997 RMK A01 T00570036  RH  087%=      5-min Rain = 0
KTH1 191351Z 19003KT 06/04 A2997 RMK A01 T00580037  RH  086%=      5-min Rain = 0
KTH1 191352Z 19003KT 06/04 A2997 RMK A01 T00580038  RH  087%=      5-min Rain = 0
KTH1 191353Z 19003KT 06/04 A2997 RMK A01 T00590038  RH  086%=      5-min Rain = 0
KTH1 191354Z 19002KT 06/04 A2997 RMK A01 T00590038  RH  086%=      5-min Rain = 0
KTH1 191355Z 19002KT 06/04 A2997 RMK A01 T00600037  RH  085%=      5-min Rain = 0
KTH1 191356Z 19001KT 06/04 A2997 RMK A01 T00600038  RH  085%=      5-min Rain = 0
KTH1 191357Z 19001KT 06/04 A2997 RMK A01 T00610039  RH  086%=      5-min Rain = 0
KTH1 191358Z 19001KT 06/04 A2997 RMK A01 T00610040  RH  086%=      5-min Rain = 0
KTH1 191359Z 19001KT 06/04 A2997 RMK A01 T00620040  RH  086%=      5-min Rain = 0
KTH1 191400Z 19001KT 06/04 A2997 RMK A01 T00620039  RH  085%=      5-min Rain = 0
KTH1 191401Z 20000KT 06/04 A2997 RMK A01 T00620037  RH  084%=      5-min Rain = 0
KTH1 191402Z 20001KT 06/04 A2998 RMK A01 T00620037  RH  084%=      5-min Rain = 0
KTH1 191403Z 21001KT 06/04 A2998 RMK A01 T00620038  RH  085%=      5-min Rain = 0
KTH1 191404Z 21002KT 06/04 A2998 RMK A01 T00620039  RH  085%=      5-min Rain = 0
KTH1 191405Z 20002KT 06/04 A2998 RMK A01 T00620038  RH  084%=      5-min Rain = 0
KTH1 191406Z 19002KT 06/04 A2998 RMK A01 T00630037  RH  084%=      5-min Rain = 0
KTH1 191407Z 19002KT 06/04 A2998 RMK A01 T00630036  RH  083%=      5-min Rain = 0
KTH1 191408Z 19001KT 06/04 A2998 RMK A01 T00640035  RH  082%=      5-min Rain = 0
KTH1 191409Z 19001KT 07/04 A2998 RMK A01 T00650035  RH  082%=      5-min Rain = 0
KTH1 191410Z 19001KT 07/04 A2998 RMK A01 T00660037  RH  082%=      5-min Rain = 0
KTH1 191411Z 19001KT 07/04 A2998 RMK A01 T00670038  RH  082%=      5-min Rain = 0
KTH1 191412Z 19001KT 07/04 A2998 RMK A01 T00680039  RH  082%=      5-min Rain = 0
KTH1 191413Z 19001KT 07/04 A2998 RMK A01 T00690040  RH  082%=      5-min Rain = 0
KTH1 191414Z 19001KT 07/04 A2998 RMK A01 T00700040  RH  081%=      5-min Rain = 0
KTH1 191415Z 19001KT 07/04 A2998 RMK A01 T00710039  RH  080%=      5-min Rain = 0
KTH1 191416Z 19001KT 07/04 A2998 RMK A01 T00720040  RH  080%=      5-min Rain = 0
KTH1 191417Z 19001KT 07/04 A2998 RMK A01 T00740041  RH  080%=      5-min Rain = 0
KTH1 191418Z 18001KT 08/04 A2998 RMK A01 T00750041  RH  079%=      5-min Rain = 0
KTH1 191419Z 17002KT 08/04 A2998 RMK A01 T00770042  RH  079%=      5-min Rain = 0
KTH1 191420Z 16002KT 08/04 A2998 RMK A01 T00780040  RH  077%=      5-min Rain = 0
KTH1 191421Z 16001KT 08/04 A2998 RMK A01 T00790040  RH  076%=      5-min Rain = 0
KTH1 191422Z 15001KT 08/04 A2998 RMK A01 T00810040  RH  075%=      5-min Rain = 0
KTH1 191423Z 14002KT 08/04 A2998 RMK A01 T00820039  RH  074%=      5-min Rain = 0
KTH1 191424Z 13001KT 08/04 A2998 RMK A01 T00840040  RH  074%=      5-min Rain = 0
KTH1 191425Z 13001KT 09/04 A2998 RMK A01 T00860042  RH  074%=      5-min Rain = 0
KTH1 191426Z 12001KT 09/04 A2998 RMK A01 T00880041  RH  072%=      5-min Rain = 0
KTH1 191427Z 11001KT 09/04 A2998 RMK A01 T00900041  RH  071%=      5-min Rain = 0
KTH1 191428Z 11001KT 09/04 A2998 RMK A01 T00920040  RH  070%=      5-min Rain = 0
KTH1 191429Z 10001KT 09/04 A2998 RMK A01 T00930040  RH  069%=      5-min Rain = 0
KTH1 191430Z 10001KT 10/04 A2998 RMK A01 T00950043  RH  070%=      5-min Rain = 0
KTH1 191431Z 11001KT 10/05 A2998 RMK A01 T00970045  RH  070%=      5-min Rain = 0
KTH1 191432Z 10001KT 10/05 A2998 RMK A01 T00990050  RH  071%=      5-min Rain = 0
KTH1 191433Z 10001KT 10/05 A2998 RMK A01 T01010053  RH  072%=      5-min Rain = 0
KTH1 191434Z 11000KT 10/05 A2998 RMK A01 T01040054  RH  071%=      5-min Rain = 0
KTH1 191435Z 11000KT 11/06 A2998 RMK A01 T01070056  RH  071%=      5-min Rain = 0
KTH1 191436Z 12000KT 11/05 A2998 RMK A01 T01090053  RH  069%=      5-min Rain = 0
KTH1 191437Z 00000KT 11/05 A2998 RMK A01 T01090051  RH  067%=      5-min Rain = 0
KTH1 191438Z 00000KT 11/05 A2998 RMK A01 T01100051  RH  067%=      5-min Rain = 0
KTH1 191439Z 11001KT 11/05 A2998 RMK A01 T01090052  RH  068%=      5-min Rain = 0
KTH1 191440Z 11000KT 11/06 A2998 RMK A01 T01100055  RH  069%=      5-min Rain = 0
KTH1 191441Z 13001KT 11/06 A2998 RMK A01 T01100056  RH  069%=      5-min Rain = 0
KTH1 191442Z 11000KT 11/06 A2998 RMK A01 T01110056  RH  068%=      5-min Rain = 0
KTH1 191443Z 12001KT 11/06 A2998 RMK A01 T01120055  RH  068%=      5-min Rain = 0
KTH1 191444Z 12001KT 11/06 A2998 RMK A01 T01140058  RH  068%=      5-min Rain = 0
KTH1 191445Z 12000KT 12/06 A2998 RMK A01 T01160059  RH  068%=      5-min Rain = 0
KTH1 191446Z 11001KT 12/06 A2998 RMK A01 T01180061  RH  068%=      5-min Rain = 0
KTH1 191447Z 10001KT 12/06 A2998 RMK A01 T01210060  RH  066%=      5-min Rain = 0
KTH1 191448Z 11002KT 13/06 A2998 RMK A01 T01250056  RH  063%=      5-min Rain = 0
KTH1 191449Z 10002KT 13/06 A2998 RMK A01 T01270055  RH  061%=      5-min Rain = 0
KTH1 191450Z 11002KT 13/06 A2998 RMK A01 T01300056  RH  061%=      5-min Rain = 0
KTH1 191451Z 12002KT 13/06 A2998 RMK A01 T01320055  RH  060%=      5-min Rain = 0
KTH1 191452Z 11001KT 13/05 A2998 RMK A01 T01340051  RH  057%=      5-min Rain = 0
KTH1 191453Z 12002KT 14/05 A2998 RMK A01 T01370053  RH  057%=      5-min Rain = 0
KTH1 191454Z 12001KT 14/05 A2998 RMK A01 T01390052  RH  056%=      5-min Rain = 0
KTH1 191455Z 12003KT 14/05 A2998 RMK A01 T01420053  RH  055%=      5-min Rain = 0
KTH1 191456Z 12003KT 14/05 A2998 RMK A01 T01420049  RH  053%=      5-min Rain = 0
KTH1 191457Z 12002KT 14/05 A2998 RMK A01 T01420052  RH  055%=      5-min Rain = 0
KTH1 191458Z 11002KT 14/06 A2998 RMK A01 T01440056  RH  055%=      5-min Rain = 0
KTH1 191459Z 11001KT 15/06 A2998 RMK A01 T01450055  RH  055%=      5-min Rain = 0
KTH1 191500Z 14002KT 15/06 A2998 RMK A01 T01470056  RH  054%=      5-min Rain = 0
KTH1 191501Z 13001KT 15/05 A2998 RMK A01 T01480053  RH  053%=      5-min Rain = 0
KTH1 191502Z 12001KT 15/05 A2998 RMK A01 T01480053  RH  053%=      5-min Rain = 0
KTH1 191503Z 13001KT 15/06 A2998 RMK A01 T01490055  RH  053%=      5-min Rain = 0
KTH1 191504Z 14001KT 15/06 A2998 RMK A01 T01510057  RH  054%=      5-min Rain = 0
KTH1 191505Z 12002KT 15/05 A2998 RMK A01 T01520054  RH  052%=      5-min Rain = 0
KTH1 191506Z 07000KT 15/06 A2998 RMK A01 T01530055  RH  052%=      5-min Rain = 0
KTH1 191507Z 11001KT 15/06 A2998 RMK A01 T01540055  RH  052%=      5-min Rain = 0
KTH1 191508Z 10001KT 15/06 A2998 RMK A01 T01540057  RH  052%=      5-min Rain = 0
KTH1 191509Z 11001KT 16/06 A2998 RMK A01 T01550059  RH  052%=      5-min Rain = 0
KTH1 191510Z 13001KT 16/06 A2998 RMK A01 T01570061  RH  053%=      5-min Rain = 0
KTH1 191511Z 14002KT 16/06 A2998 RMK A01 T01570060  RH  052%=      5-min Rain = 0
KTH1 191512Z 15001KT 16/06 A2998 RMK A01 T01580060  RH  052%=      5-min Rain = 0
KTH1 191513Z 16002KT 16/06 A2998 RMK A01 T01600056  RH  050%=      5-min Rain = 0
KTH1 191514Z 16002KT 16/05 A2998 RMK A01 T01610053  RH  049%=      5-min Rain = 0
KTH1 191515Z 16002KT 16/05 A2998 RMK A01 T01620049  RH  047%=      5-min Rain = 0
KTH1 191516Z 13002KT 16/05 A2998 RMK A01 T01620052  RH  048%=      5-min Rain = 0
KTH1 191517Z 13003KT 16/05 A2998 RMK A01 T01620051  RH  048%=      5-min Rain = 0
KTH1 191518Z 18002KT 16/05 A2998 RMK A01 T01620052  RH  048%=      5-min Rain = 0
KTH1 191519Z 15002KT 16/05 A2998 RMK A01 T01620052  RH  048%=      5-min Rain = 0
KTH1 191520Z 15001KT 16/05 A2998 RMK A01 T01630053  RH  048%=      5-min Rain = 0
KTH1 191521Z 18001KT 16/05 A2998 RMK A01 T01630052  RH  048%=      5-min Rain = 0
KTH1 191522Z 19001KT 16/05 A2998 RMK A01 T01620053  RH  048%=      5-min Rain = 0
KTH1 191523Z 16003KT 16/05 A2998 RMK A01 T01610054  RH  049%=      5-min Rain = 0
KTH1 191524Z 15002KT 16/06 A2998 RMK A01 T01620056  RH  049%=      5-min Rain = 0
KTH1 191525Z 14001KT 16/06 A2998 RMK A01 T01640055  RH  048%=      5-min Rain = 0
KTH1 191526Z 14001KT 17/06 A2998 RMK A01 T01660055  RH  048%=      5-min Rain = 0
KTH1 191527Z 13000KT 17/06 A2998 RMK A01 T01670055  RH  048%=      5-min Rain = 0
KTH1 191528Z 15002KT 17/06 A2998 RMK A01 T01690058  RH  048%=      5-min Rain = 0
KTH1 191529Z 17001KT 17/06 A2998 RMK A01 T01720060  RH  048%=      5-min Rain = 0
KTH1 191530Z 23001KT 17/06 A2998 RMK A01 T01730060  RH  047%=      5-min Rain = 0
KTH1 191531Z 20002KT 17/06 A2998 RMK A01 T01710057  RH  047%=      5-min Rain = 0
KTH1 191532Z 18003KT 17/06 A2998 RMK A01 T01710056  RH  047%=      5-min Rain = 0
KTH1 191533Z 17002KT 17/05 A2998 RMK A01 T01700053  RH  046%=      5-min Rain = 0
KTH1 191534Z 20003KT 17/06 A2998 RMK A01 T01710057  RH  047%=      5-min Rain = 0
KTH1 191535Z 22002KT 17/06 A2998 RMK A01 T01720057  RH  047%=      5-min Rain = 0
KTH1 191536Z 20002KT 17/06 A2998 RMK A01 T01720056  RH  046%=      5-min Rain = 0
KTH1 191537Z 21003KT 17/06 A2998 RMK A01 T01710055  RH  046%=      5-min Rain = 0
KTH1 191538Z 19002KT 17/05 A2998 RMK A01 T01680054  RH  047%=      5-min Rain = 0
KTH1 191539Z 15002KT 17/06 A2998 RMK A01 T01670057  RH  048%=      5-min Rain = 0
KTH1 191540Z 25002KT 17/06 A2998 RMK A01 T01670055  RH  047%=      5-min Rain = 0
KTH1 191541Z 24002KT 17/05 A2998 RMK A01 T01670054  RH  047%=      5-min Rain = 0
KTH1 191542Z 21001KT 17/06 A2998 RMK A01 T01670055  RH  047%=      5-min Rain = 0
KTH1 191543Z 23002KT 17/06 A2998 RMK A01 T01680056  RH  048%=      5-min Rain = 0
KTH1 191544Z 22002KT 17/06 A2998 RMK A01 T01690056  RH  047%=      5-min Rain = 0
KTH1 191545Z 20002KT 17/06 A2998 RMK A01 T01700055  RH  047%=      5-min Rain = 0
KTH1 191546Z 19002KT 17/06 A2998 RMK A01 T01700055  RH  046%=      5-min Rain = 0
KTH1 191547Z 15002KT 17/05 A2998 RMK A01 T01700054  RH  046%=      5-min Rain = 0
KTH1 191548Z 15002KT 17/05 A2998 RMK A01 T01720052  RH  045%=      5-min Rain = 0
KTH1 191549Z 17001KT 18/05 A2998 RMK A01 T01750051  RH  044%=      5-min Rain = 0
KTH1 191550Z 17003KT 18/05 A2998 RMK A01 T01780051  RH  043%=      5-min Rain = 0
KTH1 191551Z 22001KT 18/05 A2998 RMK A01 T01790052  RH  043%=      5-min Rain = 0
KTH1 191552Z 20002KT 18/05 A2998 RMK A01 T01790054  RH  044%=      5-min Rain = 0
KTH1 191553Z 20002KT 18/05 A2998 RMK A01 T01770051  RH  043%=      5-min Rain = 0
KTH1 191554Z 23002KT 18/05 A2998 RMK A01 T01760052  RH  044%=      5-min Rain = 0
KTH1 191555Z 21002KT 18/05 A2998 RMK A01 T01750054  RH  045%=      5-min Rain = 0
KTH1 191556Z 25004KT 18/05 A2998 RMK A01 T01750051  RH  044%=      5-min Rain = 0
KTH1 191557Z 24004KT 17/05 A2998 RMK A01 T01740054  RH  045%=      5-min Rain = 0
KTH1 191558Z 25004KT 17/05 A2998 RMK A01 T01730053  RH  045%=      5-min Rain = 0
KTH1 191559Z 24004KT 17/05 A2998 RMK A01 T01710052  RH  045%=      5-min Rain = 0
KTH1 191600Z 24004KT 17/05 A2998 RMK A01 T01710053  RH  046%=      5-min Rain = 0
KTH1 191601Z 24004KT 17/05 A2998 RMK A01 T01710053  RH  046%=      5-min Rain = 0
KTH1 191602Z 25004KT 17/06 A2998 RMK A01 T01720055  RH  046%=      5-min Rain = 0
KTH1 191603Z 25003KT 17/06 A2998 RMK A01 T01720057  RH  047%=      5-min Rain = 0
KTH1 191604Z 25003KT 17/06 A2998 RMK A01 T01720058  RH  047%=      5-min Rain = 0
KTH1 191605Z 25004KT 17/06 A2998 RMK A01 T01730059  RH  047%=      5-min Rain = 0
KTH1 191606Z 18002KT 17/06 A2998 RMK A01 T01740063  RH  048%=      5-min Rain = 0
KTH1 191607Z 19003KT 18/06 A2998 RMK A01 T01750059  RH  047%=      5-min Rain = 0
KTH1 191608Z 20001KT 18/06 A2998 RMK A01 T01770055  RH  045%=      5-min Rain = 0
KTH1 191609Z 23001KT 18/06 A2998 RMK A01 T01780055  RH  044%=      5-min Rain = 0
KTH1 191610Z 22001KT 18/06 A2998 RMK A01 T01800057  RH  044%=      5-min Rain = 0
KTH1 191611Z 16002KT 18/06 A2998 RMK A01 T01810056  RH  044%=      5-min Rain = 0
KTH1 191612Z 25001KT 18/05 A2998 RMK A01 T01820053  RH  043%=      5-min Rain = 0
KTH1 191613Z 13002KT 18/05 A2998 RMK A01 T01830054  RH  043%=      5-min Rain = 0
KTH1 191614Z 13002KT 19/06 A2998 RMK A01 T01850056  RH  043%=      5-min Rain = 0
KTH1 191615Z 13002KT 19/06 A2998 RMK A01 T01870058  RH  043%=      5-min Rain = 0
KTH1 191616Z 23001KT 19/06 A2998 RMK A01 T01890056  RH  041%=      5-min Rain = 0
KTH1 191617Z 18003KT 19/05 A2998 RMK A01 T01900053  RH  041%=      5-min Rain = 0
KTH1 191618Z 15003KT 19/05 A2998 RMK A01 T01900054  RH  041%=      5-min Rain = 0
KTH1 191619Z 16001KT 19/05 A2998 RMK A01 T01900054  RH  041%=      5-min Rain = 0
KTH1 191620Z 12000KT 19/05 A2998 RMK A01 T01910051  RH  040%=      5-min Rain = 0
KTH1 191621Z 25002KT 19/06 A2998 RMK A01 T01920055  RH  041%=      5-min Rain = 0
KTH1 191622Z 24002KT 19/06 A2998 RMK A01 T01910059  RH  042%=      5-min Rain = 0
KTH1 191623Z 24002KT 19/06 A2998 RMK A01 T01900056  RH  041%=      5-min Rain = 0
KTH1 191624Z 21002KT 19/05 A2998 RMK A01 T01900054  RH  041%=      5-min Rain = 0
KTH1 191625Z 20002KT 19/06 A2998 RMK A01 T01900055  RH  041%=      5-min Rain = 0
KTH1 191626Z 18002KT 19/05 A2998 RMK A01 T01900054  RH  041%=      5-min Rain = 0
KTH1 191627Z 17003KT 19/05 A2998 RMK A01 T01890050  RH  040%=      5-min Rain = 0
KTH1 191628Z 17002KT 19/05 A2998 RMK A01 T01910049  RH  039%=      5-min Rain = 0
KTH1 191629Z 21002KT 19/05 A2998 RMK A01 T01940052  RH  039%=      5-min Rain = 0
KTH1 191630Z 22001KT 20/05 A2998 RMK A01 T01960051  RH  038%=      5-min Rain = 0
KTH1 191631Z 19002KT 20/05 A2998 RMK A01 T01980053  RH  039%=      5-min Rain = 0
KTH1 191632Z 19003KT 20/06 A2998 RMK A01 T02000056  RH  039%=      5-min Rain = 0
KTH1 191633Z 21002KT 20/05 A2998 RMK A01 T02010054  RH  038%=      5-min Rain = 0
KTH1 191634Z 23004KT 20/05 A2997 RMK A01 T02010052  RH  038%=      5-min Rain = 0
KTH1 191635Z 20002KT 20/05 A2997 RMK A01 T01990048  RH  037%=      5-min Rain = 0
KTH1 191636Z 24001KT 20/05 A2997 RMK A01 T01980050  RH  038%=      5-min Rain = 0
KTH1 191637Z 20001KT 20/05 A2997 RMK A01 T01970051  RH  038%=      5-min Rain = 0
KTH1 191638Z 24001KT 20/05 A2997 RMK A01 T01990053  RH  038%=      5-min Rain = 0
KTH1 191639Z 21004KT 20/05 A2997 RMK A01 T02010052  RH  038%=      5-min Rain = 0
KTH1 191640Z 20004KT 20/05 A2997 RMK A01 T02010051  RH  037%=      5-min Rain = 0
KTH1 191641Z 21002KT 20/05 A2997 RMK A01 T02030052  RH  037%=      5-min Rain = 0
KTH1 191642Z 21005KT 20/05 A2997 RMK A01 T02040054  RH  037%=      5-min Rain = 0
KTH1 191643Z 21004KT 21/05 A2997 RMK A01 T02050052  RH  037%=      5-min Rain = 0
KTH1 191644Z 21001KT 20/05 A2997 RMK A01 T02040051  RH  037%=      5-min Rain = 0
KTH1 191645Z 18002G7KT 20/06 A2997 RMK A01 T02030055  RH  038%=      5-min Rain = 0
KTH1 191646Z 18003KT 21/05 A2997 RMK A01 T02050054  RH  037%=      5-min Rain = 0
KTH1 191647Z 21004KT 21/05 A2997 RMK A01 T02070053  RH  036%=      5-min Rain = 0
KTH1 191648Z 19002KT 21/05 A2997 RMK A01 T02080053  RH  036%=      5-min Rain = 0
KTH1 191649Z 21003KT 21/06 A2997 RMK A01 T02080055  RH  037%=      5-min Rain = 0
KTH1 191650Z 19004KT 21/05 A2997 RMK A01 T02090054  RH  036%=      5-min Rain = 0
KTH1 191651Z 20004KT 21/06 A2997 RMK A01 T02090055  RH  037%=      5-min Rain = 0
KTH1 191652Z 20003KT 21/05 A2997 RMK A01 T02100053  RH  036%=      5-min Rain = 0
KTH1 191653Z 21002KT 21/05 A2997 RMK A01 T02080052  RH  036%=      5-min Rain = 0
KTH1 191654Z 24003KT 21/06 A2997 RMK A01 T02080056  RH  037%=      5-min Rain = 0
KTH1 191655Z 22003KT 21/06 A2997 RMK A01 T02080056  RH  037%=      5-min Rain = 0
KTH1 191656Z 21003KT 21/06 A2997 RMK A01 T02080055  RH  037%=      5-min Rain = 0
KTH1 191657Z 22002KT 21/06 A2997 RMK A01 T02080055  RH  037%=      5-min Rain = 0
KTH1 191658Z 23001KT 21/05 A2997 RMK A01 T02090054  RH  036%=      5-min Rain = 0
KTH1 191659Z 23002KT 21/06 A2997 RMK A01 T02090057  RH  037%=      5-min Rain = 0
KTH1 191700Z 24002KT 21/06 A2997 RMK A01 T02110056  RH  036%=      5-min Rain = 0
KTH1 191701Z 24003KT 21/06 A2997 RMK A01 T02120056  RH  036%=      5-min Rain = 0
KTH1 191702Z 19003KT 21/06 A2997 RMK A01 T02110055  RH  036%=      5-min Rain = 0
KTH1 191703Z 20002KT 21/06 A2997 RMK A01 T02120057  RH  037%=      5-min Rain = 0
KTH1 191704Z 21003KT 21/06 A2997 RMK A01 T02130056  RH  036%=      5-min Rain = 0
KTH1 191705Z 24003KT 21/06 A2997 RMK A01 T02140058  RH  036%=      5-min Rain = 0
KTH1 191706Z 24004KT 22/06 A2997 RMK A01 T02160058  RH  036%=      5-min Rain = 0
KTH1 191707Z 24003KT 21/06 A2997 RMK A01 T02140059  RH  036%=      5-min Rain = 0
KTH1 191708Z 25003KT 21/06 A2997 RMK A01 T02130060  RH  037%=      5-min Rain = 0
KTH1 191709Z 18003KT 21/06 A2997 RMK A01 T02120061  RH  037%=      5-min Rain = 0
KTH1 191710Z 18003KT 21/06 A2996 RMK A01 T02140060  RH  037%=      5-min Rain = 0
KTH1 191711Z 20002KT 22/06 A2996 RMK A01 T02170059  RH  036%=      5-min Rain = 0
KTH1 191712Z 21002KT 22/06 A2996 RMK A01 T02180056  RH  035%=      5-min Rain = 0
KTH1 191713Z 26001KT 22/06 A2996 RMK A01 T02180057  RH  035%=      5-min Rain = 0
KTH1 191714Z 23003KT 22/06 A2996 RMK A01 T02170059  RH  036%=      5-min Rain = 0
KTH1 191715Z 20004KT 22/06 A2996 RMK A01 T02180058  RH  035%=      5-min Rain = 0
KTH1 191716Z 20004KT 22/06 A2996 RMK A01 T02190057  RH  035%=      5-min Rain = 0
KTH1 191717Z 20001KT 22/05 A2996 RMK A01 T02180054  RH  034%=      5-min Rain = 0
KTH1 191718Z 18001KT 22/06 A2996 RMK A01 T02160055  RH  035%=      5-min Rain = 0
KTH1 191719Z 10002KT 22/06 A2996 RMK A01 T02170057  RH  035%=      5-min Rain = 0
KTH1 191720Z 26002KT 22/06 A2996 RMK A01 T02180057  RH  035%=      5-min Rain = 0
KTH1 191721Z 21003KT 22/06 A2996 RMK A01 T02190058  RH  035%=      5-min Rain = 0
KTH1 191722Z 20004KT 22/06 A2996 RMK A01 T02190057  RH  035%=      5-min Rain = 0
KTH1 191723Z 21004KT 22/06 A2996 RMK A01 T02220059  RH  035%=      5-min Rain = 0
KTH1 191724Z 21004KT 22/06 A2996 RMK A01 T02240059  RH  034%=      5-min Rain = 0
KTH1 191725Z 20004KT 23/06 A2996 RMK A01 T02250059  RH  034%=      5-min Rain = 0
KTH1 191726Z 19005KT 23/06 A2996 RMK A01 T02250058  RH  034%=      5-min Rain = 0
KTH1 191727Z 19005KT 22/06 A2995 RMK A01 T02240057  RH  034%=      5-min Rain = 0
KTH1 191728Z 20004KT 22/06 A2995 RMK A01 T02210056  RH  034%=      5-min Rain = 0
KTH1 191729Z 22003KT 22/06 A2995 RMK A01 T02190056  RH  035%=      5-min Rain = 0
KTH1 191730Z 19004KT 22/06 A2995 RMK A01 T02170057  RH  035%=      5-min Rain = 0
KTH1 191731Z 17004KT 22/06 A2995 RMK A01 T02160056  RH  035%=      5-min Rain = 0
KTH1 191732Z 17005KT 22/06 A2995 RMK A01 T02160057  RH  035%=      5-min Rain = 0
KTH1 191733Z 16003KT 22/06 A2995 RMK A01 T02180058  RH  035%=      5-min Rain = 0
KTH1 191734Z 14002KT 22/06 A2995 RMK A01 T02210059  RH  035%=      5-min Rain = 0
KTH1 191735Z 16004KT 22/06 A2995 RMK A01 T02230059  RH  034%=      5-min Rain = 0
KTH1 191736Z 16004KT 22/06 A2995 RMK A01 T02230058  RH  034%=      5-min Rain = 0
KTH1 191737Z 18005KT 22/06 A2995 RMK A01 T02230058  RH  034%=      5-min Rain = 0
KTH1 191738Z 14005KT 22/06 A2995 RMK A01 T02220058  RH  035%=      5-min Rain = 0
KTH1 191739Z 14004KT 22/06 A2995 RMK A01 T02220060  RH  035%=      5-min Rain = 0
KTH1 191740Z 12004KT 22/06 A2995 RMK A01 T02230060  RH  035%=      5-min Rain = 0
KTH1 191741Z 12005KT 22/06 A2995 RMK A01 T02240062  RH  035%=      5-min Rain = 0
KTH1 191742Z 14006KT 23/06 A2995 RMK A01 T02260062  RH  035%=      5-min Rain = 0
KTH1 191743Z 15006KT 23/06 A2995 RMK A01 T02280061  RH  034%=      5-min Rain = 0
KTH1 191744Z 13006KT 23/06 A2995 RMK A01 T02280060  RH  034%=      5-min Rain = 0
KTH1 191745Z 15005KT 23/06 A2995 RMK A01 T02280060  RH  034%=      5-min Rain = 0
KTH1 191746Z 14004KT 23/06 A2995 RMK A01 T02270058  RH  034%=      5-min Rain = 0
KTH1 191747Z 15006KT 23/06 A2995 RMK A01 T02270061  RH  034%=      5-min Rain = 0
KTH1 191748Z 14006KT 23/06 A2995 RMK A01 T02290062  RH  034%=      5-min Rain = 0
KTH1 191749Z 15006KT 23/06 A2995 RMK A01 T02310061  RH  033%=      5-min Rain = 0
KTH1 191750Z 14005KT 23/06 A2995 RMK A01 T02320063  RH  033%=      5-min Rain = 0
KTH1 191751Z 15005KT 23/06 A2995 RMK A01 T02340063  RH  033%=      5-min Rain = 0
KTH1 191752Z 14004KT 24/06 A2994 RMK A01 T02350061  RH  033%=      5-min Rain = 0
KTH1 191753Z 15005KT 24/06 A2994 RMK A01 T02350062  RH  033%=      5-min Rain = 0
KTH1 191754Z 14004KT 24/06 A2994 RMK A01 T02350064  RH  033%=      5-min Rain = 0
KTH1 191755Z 20004KT 24/07 A2994 RMK A01 T02380065  RH  033%=      5-min Rain = 0
KTH1 191756Z 19006KT 24/06 A2994 RMK A01 T02390064  RH  032%=      5-min Rain = 0
KTH1 191757Z 19005KT 24/06 A2994 RMK A01 T02390064  RH  032%=      5-min Rain = 0
KTH1 191758Z 24003KT 24/06 A2994 RMK A01 T02380062  RH  032%=      5-min Rain = 0
KTH1 191759Z 25002KT 24/06 A2994 RMK A01 T02370063  RH  033%=      5-min Rain = 0
KTH1 191800Z 20001KT 24/06 A2994 RMK A01 T02370063  RH  033%=      5-min Rain = 0
KTH1 191801Z 22002KT 24/07 A2994 RMK A01 T02390067  RH  033%=      5-min Rain = 0
KTH1 191802Z 22004KT 24/07 A2994 RMK A01 T02410067  RH  033%=      5-min Rain = 0
KTH1 191803Z 20007KT 24/06 A2994 RMK A01 T02410064  RH  032%=      5-min Rain = 0
KTH1 191804Z 17005KT 24/06 A2994 RMK A01 T02380062  RH  032%=      5-min Rain = 0
KTH1 191805Z 15003KT 24/06 A2994 RMK A01 T02370063  RH  032%=      5-min Rain = 0
KTH1 191806Z 17005KT 24/07 A2994 RMK A01 T02400066  RH  033%=      5-min Rain = 0
KTH1 191807Z 19004KT 24/07 A2994 RMK A01 T02440066  RH  032%=      5-min Rain = 0
KTH1 191808Z 21003KT 25/06 A2994 RMK A01 T02460064  RH  031%=      5-min Rain = 0
KTH1 191809Z 21003KT 24/06 A2993 RMK A01 T02440062  RH  031%=      5-min Rain = 0
KTH1 191810Z 20004KT 24/06 A2993 RMK A01 T02420064  RH  032%=      5-min Rain = 0
KTH1 191811Z 18005KT 24/06 A2993 RMK A01 T02420064  RH  032%=      5-min Rain = 0
KTH1 191812Z 16005KT 24/06 A2993 RMK A01 T02430063  RH  031%=      5-min Rain = 0
KTH1 191813Z 18006KT 24/06 A2993 RMK A01 T02440063  RH  031%=      5-min Rain = 0
KTH1 191814Z 16006KT 24/06 A2993 RMK A01 T02440062  RH  031%=      5-min Rain = 0
KTH1 191815Z 16004KT 24/06 A2993 RMK A01 T02440064  RH  032%=      5-min Rain = 0
KTH1 191816Z 15002KT 25/06 A2993 RMK A01 T02450064  RH  031%=      5-min Rain = 0
KTH1 191817Z 15006KT 25/07 A2993 RMK A01 T02450065  RH  031%=      5-min Rain = 0
KTH1 191818Z 13004KT 25/07 A2993 RMK A01 T02470065  RH  031%=      5-min Rain = 0
KTH1 191819Z 15003KT 25/06 A2993 RMK A01 T02470064  RH  031%=      5-min Rain = 0
KTH1 191820Z 18003KT 25/06 A2993 RMK A01 T02470064  RH  031%=      5-min Rain = 0
KTH1 191821Z 15003KT 25/07 A2993 RMK A01 T02460066  RH  031%=      5-min Rain = 0
KTH1 191822Z 15004KT 25/07 A2993 RMK A01 T02480067  RH  031%=      5-min Rain = 0
KTH1 191823Z 14006KT 25/07 A2993 RMK A01 T02500067  RH  031%=      5-min Rain = 0
KTH1 191824Z 14006KT 25/07 A2993 RMK A01 T02500066  RH  031%=      5-min Rain = 0
KTH1 191825Z 12004KT 25/07 A2993 RMK A01 T02480066  RH  031%=      5-min Rain = 0
KTH1 191826Z 13004KT 25/07 A2993 RMK A01 T02460066  RH  031%=      5-min Rain = 0
KTH1 191827Z 13004KT 25/06 A2993 RMK A01 T02460064  RH  031%=      5-min Rain = 0
KTH1 191828Z 09004KT 25/07 A2992 RMK A01 T02460066  RH  031%=      5-min Rain = 0
KTH1 191829Z 13006KT 25/07 A2992 RMK A01 T02460066  RH  032%=      5-min Rain = 0
KTH1 191830Z 17004KT 25/07 A2992 RMK A01 T02480066  RH  031%=      5-min Rain = 0
KTH1 191831Z 15004KT 25/06 A2992 RMK A01 T02500064  RH  030%=      5-min Rain = 0
KTH1 191832Z 13006KT 25/07 A2992 RMK A01 T02500066  RH  031%=      5-min Rain = 0
KTH1 191833Z 12005KT 25/06 A2992 RMK A01 T02510064  RH  030%=      5-min Rain = 0
KTH1 191834Z 14005KT 25/07 A2992 RMK A01 T02490066  RH  031%=      5-min Rain = 0
KTH1 191835Z 15007KT 25/07 A2992 RMK A01 T02510066  RH  031%=      5-min Rain = 0
KTH1 191836Z 16009KT 25/07 A2992 RMK A01 T02530065  RH  030%=      5-min Rain = 0
KTH1 191837Z 17007KT 25/06 A2992 RMK A01 T02520063  RH  030%=      5-min Rain = 0
KTH1 191838Z 17005KT 25/06 A2992 RMK A01 T02510063  RH  030%=      5-min Rain = 0
KTH1 191839Z 14003KT 25/06 A2992 RMK A01 T02490062  RH  030%=      5-min Rain = 0
KTH1 191840Z 15003KT 25/06 A2992 RMK A01 T02470062  RH  030%=      5-min Rain = 0
KTH1 191841Z 17007KT 25/06 A2992 RMK A01 T02460063  RH  031%=      5-min Rain = 0
KTH1 191842Z 17008KT 25/06 A2992 RMK A01 T02490063  RH  030%=      5-min Rain = 0
KTH1 191843Z 19006KT 25/06 A2992 RMK A01 T02520058  RH  029%=      5-min Rain = 0
KTH1 191844Z 20005KT 25/06 A2992 RMK A01 T02520059  RH  029%=      5-min Rain = 0
KTH1 191845Z 20003KT 25/06 A2992 RMK A01 T02530061  RH  029%=      5-min Rain = 0
KTH1 191846Z 17004KT 26/06 A2992 RMK A01 T02560064  RH  029%=      5-min Rain = 0
KTH1 191847Z 18005KT 26/06 A2992 RMK A01 T02590064  RH  029%=      5-min Rain = 0
KTH1 191848Z 19006KT 26/06 A2991 RMK A01 T02610061  RH  028%=      5-min Rain = 0
KTH1 191849Z 18006KT 26/06 A2991 RMK A01 T02610061  RH  028%=      5-min Rain = 0
KTH1 191850Z 17006KT 26/06 A2991 RMK A01 T02600061  RH  028%=      5-min Rain = 0
KTH1 191851Z 15008KT 26/06 A2991 RMK A01 T02590059  RH  028%=      5-min Rain = 0
KTH1 191852Z 15007KT 26/06 A2991 RMK A01 T02570059  RH  028%=      5-min Rain = 0
KTH1 191853Z 16006KT 26/06 A2991 RMK A01 T02550059  RH  028%=      5-min Rain = 0
KTH1 191854Z 17003KT 26/06 A2991 RMK A01 T02550060  RH  029%=      5-min Rain = 0
KTH1 191855Z 15003KT 26/06 A2991 RMK A01 T02550060  RH  029%=      5-min Rain = 0
KTH1 191856Z 15004KT 26/06 A2991 RMK A01 T02570062  RH  029%=      5-min Rain = 0
KTH1 191857Z 15006KT 26/06 A2991 RMK A01 T02590063  RH  029%=      5-min Rain = 0
KTH1 191858Z 13008KT 26/06 A2991 RMK A01 T02570062  RH  029%=      5-min Rain = 0
KTH1 191859Z 13007KT 25/06 A2991 RMK A01 T02540062  RH  029%=      5-min Rain = 0
KTH1 191900Z 13008KT 25/06 A2991 RMK A01 T02520062  RH  030%=      5-min Rain = 0
KTH1 191901Z 14007KT 25/06 A2991 RMK A01 T02490060  RH  030%=      5-min Rain = 0
KTH1 191902Z 15006KT 25/06 A2991 RMK A01 T02470061  RH  030%=      5-min Rain = 0
KTH1 191903Z 16005KT 25/06 A2991 RMK A01 T02460061  RH  030%=      5-min Rain = 0
KTH1 191904Z 16008KT 25/06 A2991 RMK A01 T02450060  RH  030%=      5-min Rain = 0
KTH1 191905Z 15006KT 25/06 A2991 RMK A01 T02460060  RH  030%=      5-min Rain = 0
KTH1 191906Z 14008KT 25/06 A2991 RMK A01 T02500062  RH  030%=      5-min Rain = 0
KTH1 191907Z 13009KT 25/06 A2991 RMK A01 T02510060  RH  029%=      5-min Rain = 0
KTH1 191908Z 14007KT 25/06 A2991 RMK A01 T02530062  RH  030%=      5-min Rain = 0
KTH1 191909Z 14007KT 26/07 A299 RMK A01 T02560066  RH  030%=      5-min Rain = 0
KTH1 191910Z 13009KT 26/06 A299 RMK A01 T02590062  RH  028%=      5-min Rain = 0
KTH1 191911Z 12008KT 26/06 A299 RMK A01 T02570062  RH  029%=      5-min Rain = 0
KTH1 191912Z 14009KT 26/06 A299 RMK A01 T02560062  RH  029%=      5-min Rain = 0
KTH1 191913Z 15008KT 25/06 A299 RMK A01 T02540060  RH  029%=      5-min Rain = 0
KTH1 191914Z 14007G13KT 25/06 A299 RMK A01 T02530061  RH  029%=      5-min Rain = 0
KTH1 191915Z 13009KT 25/06 A299 RMK A01 T02530061  RH  029%=      5-min Rain = 0
KTH1 191916Z 13011KT 25/06 A299 RMK A01 T02530059  RH  029%=      5-min Rain = 0
KTH1 191917Z 13010KT 25/06 A299 RMK A01 T02520059  RH  029%=      5-min Rain = 0
KTH1 191918Z 13007KT 25/06 A299 RMK A01 T02510061  RH  030%=      5-min Rain = 0
KTH1 191919Z 15008KT 25/06 A299 RMK A01 T02510060  RH  029%=      5-min Rain = 0
KTH1 191920Z 15007KT 25/06 A299 RMK A01 T02510060  RH  029%=      5-min Rain = 0
KTH1 191921Z 14008KT 25/06 A299 RMK A01 T02510061  RH  030%=      5-min Rain = 0
KTH1 191922Z 15010KT 25/06 A299 RMK A01 T02530061  RH  029%=      5-min Rain = 0
KTH1 191923Z 15007KT 25/06 A299 RMK A01 T02540060  RH  029%=      5-min Rain = 0
KTH1 191924Z 14008KT 26/06 A299 RMK A01 T02550060  RH  029%=      5-min Rain = 0
KTH1 191925Z 15007KT 26/06 A299 RMK A01 T02550060  RH  029%=      5-min Rain = 0
KTH1 191926Z 15008KT 26/06 A299 RMK A01 T02560059  RH  028%=      5-min Rain = 0
KTH1 191927Z 16011KT 26/06 A299 RMK A01 T02570057  RH  028%=      5-min Rain = 0
KTH1 191928Z 15010KT 26/06 A2989 RMK A01 T02550056  RH  028%=      5-min Rain = 0
KTH1 191929Z 15009KT 26/06 A299 RMK A01 T02550056  RH  028%=      5-min Rain = 0
KTH1 191930Z 16011KT 26/06 A299 RMK A01 T02550056  RH  028%=      5-min Rain = 0
KTH1 191931Z 15009KT 25/06 A299 RMK A01 T02540056  RH  028%=      5-min Rain = 0
KTH1 191932Z 14007KT 25/06 A2989 RMK A01 T02530055  RH  028%=      5-min Rain = 0
KTH1 191933Z 14009KT 25/06 A2989 RMK A01 T02530056  RH  028%=      5-min Rain = 0
KTH1 191934Z 16007KT 26/06 A2989 RMK A01 T02550058  RH  028%=      5-min Rain = 0
KTH1 191935Z 15008KT 26/06 A2989 RMK A01 T02580058  RH  028%=      5-min Rain = 0
KTH1 191936Z 15009G14KT 26/06 A2989 RMK A01 T02600060  RH  028%=      5-min Rain = 0
KTH1 191937Z 15012KT 26/06 A2989 RMK A01 T02610058  RH  027%=      5-min Rain = 0
KTH1 191938Z 14008KT 26/06 A2989 RMK A01 T02590057  RH  027%=      5-min Rain = 0
KTH1 191939Z 14006KT 26/06 A2989 RMK A01 T02560059  RH  028%=      5-min Rain = 0
KTH1 191940Z 14008KT 26/06 A2989 RMK A01 T02570061  RH  029%=      5-min Rain = 0
KTH1 191941Z 14011KT 26/06 A2989 RMK A01 T02600056  RH  027%=      5-min Rain = 0
KTH1 191942Z 13008KT 26/05 A2989 RMK A01 T02590054  RH  027%=      5-min Rain = 0
KTH1 191943Z 14009G16KT 26/06 A2989 RMK A01 T02590056  RH  027%=      5-min Rain = 0
KTH1 191944Z 13013KT 26/06 A2989 RMK A01 T02590055  RH  027%=      5-min Rain = 0
KTH1 191945Z 14012KT 26/06 A2989 RMK A01 T02600055  RH  027%=      5-min Rain = 0
KTH1 191946Z 15008KT 26/06 A2989 RMK A01 T02610055  RH  027%=      5-min Rain = 0
KTH1 191947Z 14012KT 26/05 A2989 RMK A01 T02620054  RH  026%=      5-min Rain = 0
KTH1 191948Z 14010KT 26/05 A2988 RMK A01 T02610052  RH  026%=      5-min Rain = 0
KTH1 191949Z 13009KT 26/05 A2988 RMK A01 T02600054  RH  027%=      5-min Rain = 0
KTH1 191950Z 13010KT 26/06 A2988 RMK A01 T02620055  RH  027%=      5-min Rain = 0
KTH1 191951Z 12010KT 26/05 A2988 RMK A01 T02620054  RH  026%=      5-min Rain = 0
KTH1 191952Z 15009KT 26/06 A2988 RMK A01 T02610055  RH  027%=      5-min Rain = 0
KTH1 191953Z 15007KT 26/06 A2988 RMK A01 T02620055  RH  027%=      5-min Rain = 0
KTH1 191954Z 14008KT 26/06 A2988 RMK A01 T02630056  RH  027%=      5-min Rain = 0
KTH1 191955Z 14008KT 27/06 A2988 RMK A01 T02650058  RH  027%=      5-min Rain = 0
KTH1 191956Z 14011KT 27/06 A2988 RMK A01 T02670059  RH  026%=      5-min Rain = 0
KTH1 191957Z 14012KT 27/06 A2988 RMK A01 T02670056  RH  026%=      5-min Rain = 0
KTH1 191958Z 14010KT 26/06 A2988 RMK A01 T02640056  RH  026%=      5-min Rain = 0
KTH1 191959Z 13010KT 26/06 A2988 RMK A01 T02620057  RH  027%=      5-min Rain = 0
KTH1 192000Z 15009KT 26/06 A2988 RMK A01 T02620061  RH  028%=      5-min Rain = 0
KTH1 192001Z 15007KT 27/06 A2987 RMK A01 T02660061  RH  027%=      5-min Rain = 0
KTH1 192002Z 15010KT 27/06 A2987 RMK A01 T02680060  RH  027%=      5-min Rain = 0
KTH1 192003Z 14007KT 27/06 A2987 RMK A01 T02670061  RH  027%=      5-min Rain = 0
KTH1 192004Z 15009KT 27/06 A2987 RMK A01 T02680063  RH  027%=      5-min Rain = 0
KTH1 192005Z 14007KT 27/06 A2987 RMK A01 T02690064  RH  027%=      5-min Rain = 0
KTH1 192006Z 14008KT 27/07 A2987 RMK A01 T02710065  RH  027%=      5-min Rain = 0
KTH1 192007Z 15009G14KT 27/06 A2987 RMK A01 T02730064  RH  026%=      5-min Rain = 0
KTH1 192008Z 15012KT 27/06 A2987 RMK A01 T02730061  RH  026%=      5-min Rain = 0
KTH1 192009Z 14012KT 27/06 A2987 RMK A01 T02690059  RH  026%=      5-min Rain = 0
KTH1 192010Z 14013KT 27/06 A2987 RMK A01 T02660061  RH  027%=      5-min Rain = 0
KTH1 192011Z 15010KT 27/06 A2987 RMK A01 T02650060  RH  027%=      5-min Rain = 0
KTH1 192012Z 15010KT 26/06 A2987 RMK A01 T02640060  RH  027%=      5-min Rain = 0
KTH1 192013Z 13008KT 27/06 A2987 RMK A01 T02650062  RH  027%=      5-min Rain = 0
KTH1 192014Z 13008KT 27/06 A2986 RMK A01 T02670062  RH  027%=      5-min Rain = 0
KTH1 192015Z 15008KT 27/06 A2986 RMK A01 T02680063  RH  027%=      5-min Rain = 0
KTH1 192016Z 14011KT 27/06 A2986 RMK A01 T02690063  RH  027%=      5-min Rain = 0
KTH1 192017Z 15012KT 27/06 A2986 RMK A01 T02710062  RH  026%=      5-min Rain = 0
KTH1 192018Z 14013G20KT 27/06 A2986 RMK A01 T02700063  RH  027%=      5-min Rain = 0
KTH1 192019Z 14011KT 27/06 A2986 RMK A01 T02690061  RH  027%=      5-min Rain = 0
KTH1 192020Z 15012G17KT 27/06 A2986 RMK A01 T02680061  RH  027%=      5-min Rain = 0
KTH1 192021Z 16011KT 27/06 A2986 RMK A01 T02680061  RH  027%=      5-min Rain = 0
KTH1 192022Z 14012KT 27/06 A2986 RMK A01 T02660061  RH  027%=      5-min Rain = 0
KTH1 192023Z 16013KT 27/06 A2986 RMK A01 T02670062  RH  027%=      5-min Rain = 0
KTH1 192024Z 15013KT 27/06 A2986 RMK A01 T02660059  RH  027%=      5-min Rain = 0
KTH1 192025Z 15010KT 27/06 A2986 RMK A01 T02650059  RH  027%=      5-min Rain = 0
KTH1 192026Z 16010G15KT 26/06 A2986 RMK A01 T02630060  RH  027%=      5-min Rain = 0
KTH1 192027Z 14011G16KT 26/06 A2986 RMK A01 T02640061  RH  027%=      5-min Rain = 0
KTH1 192028Z 13012KT 26/06 A2986 RMK A01 T02640060  RH  027%=      5-min Rain = 0
KTH1 192029Z 14014KT 26/06 A2986 RMK A01 T02640061  RH  027%=      5-min Rain = 0
KTH1 192030Z 13012KT 26/06 A2986 RMK A01 T02630060  RH  027%=      5-min Rain = 0
KTH1 192031Z 14010KT 26/06 A2986 RMK A01 T02630061  RH  027%=      5-min Rain = 0
KTH1 192032Z 16012KT 26/06 A2986 RMK A01 T02630062  RH  028%=      5-min Rain = 0
KTH1 192033Z 15008KT 26/06 A2986 RMK A01 T02640060  RH  027%=      5-min Rain = 0
KTH1 192034Z 14011KT 26/06 A2986 RMK A01 T02640061  RH  027%=      5-min Rain = 0
KTH1 192035Z 14011KT 27/06 A2986 RMK A01 T02650061  RH  027%=      5-min Rain = 0
KTH1 192036Z 15012KT 27/06 A2986 RMK A01 T02660059  RH  027%=      5-min Rain = 0
KTH1 192037Z 15011KT 27/06 A2986 RMK A01 T02660060  RH  027%=      5-min Rain = 0
KTH1 192038Z 15009KT 27/06 A2986 RMK A01 T02660060  RH  027%=      5-min Rain = 0
KTH1 192039Z 15011KT 27/06 A2986 RMK A01 T02660060  RH  027%=      5-min Rain = 0
KTH1 192040Z 13012KT 27/06 A2986 RMK A01 T02670059  RH  027%=      5-min Rain = 0
KTH1 192041Z 14010G15KT 27/06 A2986 RMK A01 T02660059  RH  027%=      5-min Rain = 0
KTH1 192042Z 13008G13KT 27/06 A2986 RMK A01 T02650059  RH  027%=      5-min Rain = 0
KTH1 192043Z 13012KT 27/06 A2986 RMK A01 T02660059  RH  027%=      5-min Rain = 0
KTH1 192044Z 15007KT 27/06 A2986 RMK A01 T02670058  RH  026%=      5-min Rain = 0
KTH1 192045Z 15009KT 27/06 A2986 RMK A01 T02680058  RH  026%=      5-min Rain = 0
KTH1 192046Z 14009G15KT 27/06 A2986 RMK A01 T02680059  RH  026%=      5-min Rain = 0
KTH1 192047Z 15012KT 27/06 A2986 RMK A01 T02690057  RH  026%=      5-min Rain = 0
KTH1 192048Z 15012G17KT 27/06 A2986 RMK A01 T02680057  RH  026%=      5-min Rain = 0
KTH1 192049Z 13012KT 27/06 A2986 RMK A01 T02690055  RH  025%=      5-min Rain = 0
KTH1 192050Z 13011KT 27/05 A2986 RMK A01 T02680054  RH  026%=      5-min Rain = 0
KTH1 192051Z 13011KT 27/05 A2986 RMK A01 T02670054  RH  026%=      5-min Rain = 0
KTH1 192052Z 13009KT 27/05 A2985 RMK A01 T02670054  RH  026%=      5-min Rain = 0
KTH1 192053Z 14011G16KT 27/06 A2985 RMK A01 T02670055  RH  026%=      5-min Rain = 0
KTH1 192054Z 14011KT 27/05 A2985 RMK A01 T02680053  RH  025%=      5-min Rain = 0
KTH1 192055Z 15009KT 27/05 A2985 RMK A01 T02680053  RH  025%=      5-min Rain = 0
KTH1 192056Z 14009KT 27/05 A2985 RMK A01 T02680053  RH  025%=      5-min Rain = 0
KTH1 192057Z 14011KT 27/05 A2985 RMK A01 T02680052  RH  025%=      5-min Rain = 0
KTH1 192058Z 13012KT 27/05 A2985 RMK A01 T02690052  RH  025%=      5-min Rain = 0
KTH1 192059Z 13011KT 27/05 A2985 RMK A01 T02690052  RH  025%=      5-min Rain = 0
KTH1 192100Z 14011KT 27/05 A2985 RMK A01 T02700051  RH  025%=      5-min Rain = 0
KTH1 192101Z 16009KT 27/05 A2985 RMK A01 T02700049  RH  024%=      5-min Rain = 0
KTH1 192102Z 16007KT 27/05 A2985 RMK A01 T02690048  RH  024%=      5-min Rain = 0
KTH1 192103Z 14012KT 27/05 A2985 RMK A01 T02690049  RH  024%=      5-min Rain = 0
KTH1 192104Z 15009KT 27/05 A2985 RMK A01 T02690049  RH  024%=      5-min Rain = 0
KTH1 192105Z 17008KT 27/05 A2985 RMK A01 T02690048  RH  024%=      5-min Rain = 0
KTH1 192106Z 14012KT 27/05 A2985 RMK A01 T02700049  RH  024%=      5-min Rain = 0
KTH1 192107Z 14011KT 27/05 A2985 RMK A01 T02710047  RH  024%=      5-min Rain = 0
KTH1 192108Z 16007KT 27/05 A2985 RMK A01 T02710047  RH  024%=      5-min Rain = 0
KTH1 192109Z 14008KT 27/05 A2985 RMK A01 T02710047  RH  024%=      5-min Rain = 0
KTH1 192110Z 15010KT 27/05 A2985 RMK A01 T02720047  RH  024%=      5-min Rain = 0
KTH1 192111Z 16011KT 27/04 A2985 RMK A01 T02720043  RH  023%=      5-min Rain = 0
KTH1 192112Z 18008KT 27/04 A2985 RMK A01 T02710041  RH  023%=      5-min Rain = 0
KTH1 192113Z 15006KT 27/04 A2985 RMK A01 T02700042  RH  023%=      5-min Rain = 0
KTH1 192114Z 15011KT 27/04 A2985 RMK A01 T02700040  RH  023%=      5-min Rain = 0
KTH1 192115Z 16011KT 27/04 A2985 RMK A01 T02710039  RH  023%=      5-min Rain = 0
KTH1 192116Z 16009KT 27/04 A2985 RMK A01 T02720039  RH  022%=      5-min Rain = 0
KTH1 192117Z 15009KT 27/04 A2985 RMK A01 T02730038  RH  022%=      5-min Rain = 0
KTH1 192118Z 17010KT 27/04 A2985 RMK A01 T02730035  RH  022%=      5-min Rain = 0
KTH1 192119Z 17011KT 27/03 A2985 RMK A01 T02730033  RH  021%=      5-min Rain = 0
KTH1 192120Z 16010KT 27/03 A2985 RMK A01 T02730029  RH  021%=      5-min Rain = 0
KTH1 192121Z 16011KT 27/03 A2985 RMK A01 T02730028  RH  021%=      5-min Rain = 0
KTH1 192122Z 17013KT 27/03 A2985 RMK A01 T02720027  RH  020%=      5-min Rain = 0
KTH1 192123Z 18011KT 27/03 A2985 RMK A01 T02720025  RH  020%=      5-min Rain = 0
KTH1 192124Z 18011KT 27/02 A2985 RMK A01 T02730024  RH  020%=      5-min Rain = 0
KTH1 192125Z 18014KT 27/02 A2985 RMK A01 T02720024  RH  020%=      5-min Rain = 0
KTH1 192126Z 17014KT 27/02 A2985 RMK A01 T02710024  RH  020%=      5-min Rain = 0
KTH1 192127Z 18009KT 27/03 A2985 RMK A01 T02700025  RH  021%=      5-min Rain = 0
KTH1 192128Z 17010KT 27/03 A2985 RMK A01 T02700027  RH  021%=      5-min Rain = 0
KTH1 192129Z 17011KT 27/03 A2985 RMK A01 T02700027  RH  021%=      5-min Rain = 0
KTH1 192130Z 17010KT 27/03 A2985 RMK A01 T02700030  RH  021%=      5-min Rain = 0
KTH1 192131Z 18008KT 27/03 A2985 RMK A01 T02710033  RH  022%=      5-min Rain = 0
KTH1 192132Z 17012KT 27/03 A2985 RMK A01 T02730033  RH  021%=      5-min Rain = 0
KTH1 192133Z 18011KT 27/03 A2985 RMK A01 T02730033  RH  021%=      5-min Rain = 0
KTH1 192134Z 18012KT 27/03 A2985 RMK A01 T02720033  RH  021%=      5-min Rain = 0
KTH1 192135Z 17008G13KT 27/03 A2985 RMK A01 T02710032  RH  021%=      5-min Rain = 0
KTH1 192136Z 18009KT 27/03 A2985 RMK A01 T02700033  RH  022%=      5-min Rain = 0
KTH1 192137Z 18008KT 27/03 A2985 RMK A01 T02710032  RH  021%=      5-min Rain = 0
KTH1 192138Z 18009KT 27/03 A2985 RMK A01 T02710032  RH  021%=      5-min Rain = 0
KTH1 192139Z 16010G15KT 27/03 A2985 RMK A01 T02710033  RH  022%=      5-min Rain = 0
KTH1 192140Z 16011KT 27/03 A2985 RMK A01 T02710034  RH  022%=      5-min Rain = 0
KTH1 192141Z 15012KT 27/03 A2985 RMK A01 T02700034  RH  022%=      5-min Rain = 0
KTH1 192142Z 17010KT 27/04 A2984 RMK A01 T02690035  RH  022%=      5-min Rain = 0
KTH1 192143Z 16010G17KT 27/04 A2984 RMK A01 T02690035  RH  022%=      5-min Rain = 0
KTH1 192144Z 17010G16KT 27/04 A2984 RMK A01 T02690035  RH  022%=      5-min Rain = 0
KTH1 192145Z 17011G17KT 27/03 A2984 RMK A01 T02680034  RH  022%=      5-min Rain = 0
KTH1 192146Z 17012G18KT 27/03 A2984 RMK A01 T02670034  RH  022%=      5-min Rain = 0
KTH1 192147Z 16011KT 27/03 A2984 RMK A01 T02670034  RH  022%=      5-min Rain = 0
KTH1 192148Z 16009G14KT 27/04 A2984 RMK A01 T02660035  RH  023%=      5-min Rain = 0
KTH1 192149Z 16010KT 27/04 A2984 RMK A01 T02660035  RH  023%=      5-min Rain = 0
KTH1 192150Z 16009G14KT 27/04 A2984 RMK A01 T02660035  RH  023%=      5-min Rain = 0
KTH1 192151Z 17010KT 27/04 A2984 RMK A01 T02660035  RH  023%=      5-min Rain = 0
KTH1 192152Z 15009KT 27/04 A2984 RMK A01 T02660036  RH  023%=      5-min Rain = 0
KTH1 192153Z 16009KT 27/04 A2984 RMK A01 T02660036  RH  023%=      5-min Rain = 0
KTH1 192154Z 16010KT 27/04 A2984 RMK A01 T02670037  RH  023%=      5-min Rain = 0
KTH1 192155Z 17012KT 27/04 A2984 RMK A01 T02670037  RH  023%=      5-min Rain = 0
KTH1 192156Z 16012KT 27/04 A2984 RMK A01 T02660037  RH  023%=      5-min Rain = 0
KTH1 192157Z 16011KT 27/04 A2984 RMK A01 T02650036  RH  023%=      5-min Rain = 0
KTH1 192158Z 16011KT 26/04 A2984 RMK A01 T02640036  RH  023%=      5-min Rain = 0
KTH1 192159Z 17008KT 26/04 A2984 RMK A01 T02640037  RH  023%=      5-min Rain = 0
KTH1 192200Z 16008KT 26/04 A2984 RMK A01 T02640038  RH  023%=      5-min Rain = 0
KTH1 192201Z 16010KT 27/04 A2984 RMK A01 T02650037  RH  023%=      5-min Rain = 0
KTH1 192202Z 16007KT 27/04 A2984 RMK A01 T02650037  RH  023%=      5-min Rain = 0
KTH1 192203Z 15012KT 27/04 A2984 RMK A01 T02650036  RH  023%=      5-min Rain = 0
KTH1 192204Z 15010KT 26/04 A2984 RMK A01 T02640036  RH  023%=      5-min Rain = 0
KTH1 192205Z 16010KT 26/04 A2984 RMK A01 T02640037  RH  023%=      5-min Rain = 0
KTH1 192206Z 17011G16KT 26/04 A2984 RMK A01 T02640036  RH  023%=      5-min Rain = 0
KTH1 192207Z 15012KT 26/04 A2984 RMK A01 T02640036  RH  023%=      5-min Rain = 0
KTH1 192208Z 16011KT 26/04 A2984 RMK A01 T02630036  RH  023%=      5-min Rain = 0
KTH1 192209Z 16011KT 26/04 A2984 RMK A01 T02630035  RH  023%=      5-min Rain = 0
KTH1 192210Z 16010KT 26/03 A2984 RMK A01 T02620034  RH  023%=      5-min Rain = 0
KTH1 192211Z 15013KT 26/04 A2984 RMK A01 T02620035  RH  023%=      5-min Rain = 0
KTH1 192212Z 16011KT 26/04 A2984 RMK A01 T02610035  RH  023%=      5-min Rain = 0
KTH1 192213Z 15014KT 26/04 A2984 RMK A01 T02610035  RH  023%=      5-min Rain = 0
KTH1 192214Z 16012G17KT 26/04 A2984 RMK A01 T02610035  RH  023%=      5-min Rain = 0
KTH1 192215Z 15012KT 26/04 A2984 RMK A01 T02600035  RH  023%=      5-min Rain = 0
KTH1 192216Z 17011KT 26/04 A2984 RMK A01 T02600035  RH  023%=      5-min Rain = 0
KTH1 192217Z 16011KT 26/04 A2984 RMK A01 T02610035  RH  023%=      5-min Rain = 0
KTH1 192218Z 17009KT 26/04 A2984 RMK A01 T02600035  RH  023%=      5-min Rain = 0
KTH1 192219Z 17009G14KT 26/04 A2984 RMK A01 T02600036  RH  023%=      5-min Rain = 0
KTH1 192220Z 17011KT 26/03 A2984 RMK A01 T02600034  RH  023%=      5-min Rain = 0
KTH1 192221Z 16010KT 26/04 A2984 RMK A01 T02600035  RH  023%=      5-min Rain = 0
KTH1 192222Z 16012KT 26/03 A2984 RMK A01 T02600034  RH  023%=      5-min Rain = 0
KTH1 192223Z 16011KT 26/04 A2984 RMK A01 T02590035  RH  023%=      5-min Rain = 0
KTH1 192224Z 16009KT 26/04 A2984 RMK A01 T02590035  RH  024%=      5-min Rain = 0
KTH1 192225Z 17010KT 26/04 A2984 RMK A01 T02590036  RH  024%=      5-min Rain = 0
KTH1 192226Z 15010G15KT 26/04 A2984 RMK A01 T02590035  RH  024%=      5-min Rain = 0
KTH1 192227Z 16013KT 26/04 A2983 RMK A01 T02580035  RH  024%=      5-min Rain = 0
KTH1 192228Z 16010KT 26/04 A2983 RMK A01 T02580035  RH  024%=      5-min Rain = 0
KTH1 192229Z 16012KT 26/04 A2983 RMK A01 T02580035  RH  024%=      5-min Rain = 0
KTH1 192230Z 16011KT 26/04 A2983 RMK A01 T02570035  RH  024%=      5-min Rain = 0
KTH1 192231Z 15009KT 26/03 A2983 RMK A01 T02570034  RH  024%=      5-min Rain = 0
KTH1 192232Z 16010KT 26/04 A2983 RMK A01 T02570035  RH  024%=      5-min Rain = 0
KTH1 192233Z 16013G18KT 26/03 A2983 RMK A01 T02560034  RH  024%=      5-min Rain = 0
KTH1 192234Z 16008KT 26/03 A2983 RMK A01 T02560034  RH  024%=      5-min Rain = 0
KTH1 192235Z 16010KT 26/04 A2983 RMK A01 T02560035  RH  024%=      5-min Rain = 0
KTH1 192236Z 16010KT 26/04 A2983 RMK A01 T02550035  RH  024%=      5-min Rain = 0
KTH1 192237Z 16009G14KT 26/03 A2983 RMK A01 T02550034  RH  024%=      5-min Rain = 0
KTH1 192238Z 16009KT 26/04 A2983 RMK A01 T02550035  RH  024%=      5-min Rain = 0
KTH1 192239Z 16008KT 26/04 A2983 RMK A01 T02550035  RH  024%=      5-min Rain = 0
KTH1 192240Z 15010KT 26/04 A2983 RMK A01 T02550035  RH  024%=      5-min Rain = 0
KTH1 192241Z 16009KT 25/04 A2983 RMK A01 T02540035  RH  024%=      5-min Rain = 0
KTH1 192242Z 15008KT 25/04 A2983 RMK A01 T02540036  RH  024%=      5-min Rain = 0
KTH1 192243Z 16008KT 25/04 A2983 RMK A01 T02530036  RH  024%=      5-min Rain = 0
KTH1 192244Z 15009KT 25/04 A2983 RMK A01 T02530036  RH  025%=      5-min Rain = 0
KTH1 192245Z 15011KT 25/04 A2983 RMK A01 T02520036  RH  025%=      5-min Rain = 0
KTH1 192246Z 15011KT 25/04 A2983 RMK A01 T02510036  RH  025%=      5-min Rain = 0
KTH1 192247Z 15012KT 25/04 A2983 RMK A01 T02510035  RH  025%=      5-min Rain = 0
KTH1 192248Z 15009KT 25/04 A2983 RMK A01 T02500035  RH  025%=      5-min Rain = 0
KTH1 192249Z 15009KT 25/04 A2983 RMK A01 T02500036  RH  025%=      5-min Rain = 0
KTH1 192250Z 15009KT 25/04 A2983 RMK A01 T02490036  RH  025%=      5-min Rain = 0
KTH1 192251Z 16010KT 25/04 A2983 RMK A01 T02480036  RH  025%=      5-min Rain = 0
KTH1 192252Z 15009KT 25/04 A2983 RMK A01 T02470035  RH  025%=      5-min Rain = 0
KTH1 192253Z 15010KT 25/04 A2983 RMK A01 T02470035  RH  025%=      5-min Rain = 0
KTH1 192254Z 15008KT 25/04 A2983 RMK A01 T02460036  RH  026%=      5-min Rain = 0
KTH1 192255Z 15009KT 25/04 A2983 RMK A01 T02450036  RH  026%=      5-min Rain = 0
KTH1 192256Z 15008KT 24/04 A2983 RMK A01 T02440037  RH  026%=      5-min Rain = 0
KTH1 192257Z 15007KT 24/04 A2983 RMK A01 T02430037  RH  026%=      5-min Rain = 0
KTH1 192258Z 15008KT 24/04 A2983 RMK A01 T02420037  RH  026%=      5-min Rain = 0
KTH1 192259Z 15009KT 24/04 A2983 RMK A01 T02410037  RH  027%=      5-min Rain = 0
KTH1 192300Z 16008KT 24/04 A2983 RMK A01 T02400037  RH  027%=      5-min Rain = 0
KTH1 192301Z 15007KT 24/04 A2983 RMK A01 T02400038  RH  027%=      5-min Rain = 0
KTH1 192302Z 15008KT 24/04 A2983 RMK A01 T02390038  RH  027%=      5-min Rain = 0
KTH1 192303Z 15008KT 24/04 A2983 RMK A01 T02390038  RH  027%=      5-min Rain = 0
KTH1 192304Z 15008KT 24/04 A2983 RMK A01 T02390038  RH  027%=      5-min Rain = 0
KTH1 192305Z 15008KT 24/04 A2983 RMK A01 T02380038  RH  027%=      5-min Rain = 0
KTH1 192306Z 15008KT 24/04 A2983 RMK A01 T02380037  RH  027%=      5-min Rain = 0
KTH1 192307Z 14008KT 24/04 A2983 RMK A01 T02380037  RH  027%=      5-min Rain = 0
KTH1 192308Z 15008KT 24/04 A2983 RMK A01 T02380038  RH  027%=      5-min Rain = 0
KTH1 192309Z 16008KT 24/04 A2983 RMK A01 T02370038  RH  027%=      5-min Rain = 0
KTH1 192310Z 15008KT 24/04 A2983 RMK A01 T02370037  RH  027%=      5-min Rain = 0
KTH1 192311Z 15008KT 24/04 A2983 RMK A01 T02370038  RH  027%=      5-min Rain = 0
KTH1 192312Z 15008KT 24/04 A2983 RMK A01 T02360037  RH  027%=      5-min Rain = 0
KTH1 192313Z 15007KT 24/04 A2983 RMK A01 T02350037  RH  028%=      5-min Rain = 0
KTH1 192314Z 15007KT 23/04 A2983 RMK A01 T02340037  RH  028%=      5-min Rain = 0
KTH1 192315Z 15008KT 23/04 A2983 RMK A01 T02330037  RH  028%=      5-min Rain = 0
KTH1 192316Z 15006KT 23/04 A2983 RMK A01 T02330037  RH  028%=      5-min Rain = 0
KTH1 192317Z 15007KT 23/04 A2983 RMK A01 T02310037  RH  028%=      5-min Rain = 0
KTH1 192318Z 15007KT 23/04 A2983 RMK A01 T02300038  RH  028%=      5-min Rain = 0
KTH1 192319Z 14008KT 23/04 A2983 RMK A01 T02290038  RH  029%=      5-min Rain = 0
KTH1 192320Z 14007KT 23/04 A2983 RMK A01 T02280038  RH  029%=      5-min Rain = 0
KTH1 192321Z 15008KT 23/04 A2983 RMK A01 T02270038  RH  029%=      5-min Rain = 0
KTH1 192322Z 14007KT 23/04 A2983 RMK A01 T02260039  RH  029%=      5-min Rain = 0
KTH1 192323Z 14008KT 23/04 A2983 RMK A01 T02250039  RH  030%=      5-min Rain = 0
KTH1 192324Z 14008KT 23/04 A2983 RMK A01 T02250040  RH  030%=      5-min Rain = 0
KTH1 192325Z 14006KT 23/04 A2984 RMK A01 T02250040  RH  030%=      5-min Rain = 0
KTH1 192326Z 14006KT 22/04 A2984 RMK A01 T02240041  RH  030%=      5-min Rain = 0
KTH1 192327Z 15007KT 22/04 A2984 RMK A01 T02230041  RH  031%=      5-min Rain = 0
KTH1 192328Z 15007KT 22/04 A2984 RMK A01 T02220042  RH  031%=      5-min Rain = 0
KTH1 192329Z 14006KT 22/04 A2984 RMK A01 T02210042  RH  031%=      5-min Rain = 0
KTH1 192330Z 15006KT 22/04 A2984 RMK A01 T02210042  RH  031%=      5-min Rain = 0
KTH1 192331Z 15006KT 22/04 A2984 RMK A01 T02190042  RH  031%=      5-min Rain = 0
KTH1 192332Z 15006KT 22/04 A2984 RMK A01 T02180042  RH  032%=      5-min Rain = 0
KTH1 192333Z 15005KT 22/04 A2984 RMK A01 T02170043  RH  032%=      5-min Rain = 0
KTH1 192334Z 15006KT 22/04 A2984 RMK A01 T02150042  RH  032%=      5-min Rain = 0
KTH1 192335Z 15006KT 21/04 A2984 RMK A01 T02140042  RH  033%=      5-min Rain = 0
KTH1 192336Z 15006KT 21/04 A2984 RMK A01 T02120043  RH  033%=      5-min Rain = 0
KTH1 192337Z 15005KT 21/04 A2984 RMK A01 T02110043  RH  033%=      5-min Rain = 0
KTH1 192338Z 15005KT 21/04 A2984 RMK A01 T02100043  RH  033%=      5-min Rain = 0
KTH1 192339Z 15006KT 21/04 A2984 RMK A01 T02090043  RH  034%=      5-min Rain = 0
KTH1 192340Z 15007KT 21/04 A2984 RMK A01 T02080043  RH  034%=      5-min Rain = 0
KTH1 192341Z 15005KT 21/04 A2984 RMK A01 T02060042  RH  034%=      5-min Rain = 0
KTH1 192342Z 15006KT 21/04 A2984 RMK A01 T02060043  RH  034%=      5-min Rain = 0
KTH1 192343Z 15006KT 20/04 A2984 RMK A01 T02040043  RH  035%=      5-min Rain = 0
KTH1 192344Z 15006KT 20/04 A2984 RMK A01 T02030043  RH  035%=      5-min Rain = 0
KTH1 192345Z 15006KT 20/04 A2984 RMK A01 T02030043  RH  035%=      5-min Rain = 0
KTH1 192346Z 15007KT 20/04 A2984 RMK A01 T02020043  RH  035%=      5-min Rain = 0
KTH1 192347Z 15006KT 20/04 A2984 RMK A01 T02010044  RH  035%=      5-min Rain = 0
KTH1 192348Z 15006KT 20/04 A2984 RMK A01 T02000044  RH  036%=      5-min Rain = 0
KTH1 192349Z 15006KT 20/04 A2984 RMK A01 T01990043  RH  036%=      5-min Rain = 0
KTH1 192350Z 15006KT 20/04 A2984 RMK A01 T01990044  RH  036%=      5-min Rain = 0
KTH1 192351Z 15006KT 20/04 A2984 RMK A01 T01990044  RH  036%=      5-min Rain = 0
KTH1 192352Z 15006KT 20/04 A2984 RMK A01 T01980043  RH  036%=      5-min Rain = 0
KTH1 192353Z 15006KT 20/04 A2984 RMK A01 T01970044  RH  036%=      5-min Rain = 0
KTH1 192354Z 15006KT 20/04 A2984 RMK A01 T01960044  RH  036%=      5-min Rain = 0
KTH1 192355Z 15006KT 20/04 A2984 RMK A01 T01960044  RH  037%=      5-min Rain = 0
KTH1 192356Z 14006KT 20/04 A2984 RMK A01 T01950043  RH  037%=      5-min Rain = 0
KTH1 192357Z 15006KT 20/04 A2984 RMK A01 T01950043  RH  037%=      5-min Rain = 0
KTH1 192358Z 15005KT 19/04 A2984 RMK A01 T01940043  RH  037%=      5-min Rain = 0
KTH1 192359Z 15006KT 19/04 A2984 RMK A01 T01940044  RH  037%=      5-min Rain = 0
KTH1 200000Z 15005KT 19/04 A2984 RMK A01 T01930043  RH  037%=      5-min Rain = 0
KTH1 200001Z 15005KT 19/04 A2984 RMK A01 T01930044  RH  037%=      5-min Rain = 0
KTH1 200002Z 15006KT 19/04 A2984 RMK A01 T01930043  RH  037%=      5-min Rain = 0
KTH1 200003Z 15006KT 19/04 A2984 RMK A01 T01920043  RH  037%=      5-min Rain = 0
KTH1 200004Z 15006KT 19/04 A2984 RMK A01 T01920043  RH  037%=      5-min Rain = 0
KTH1 200005Z 15006KT 19/04 A2984 RMK A01 T01910044  RH  038%=      5-min Rain = 0
KTH1 200006Z 15006KT 19/04 A2984 RMK A01 T01900043  RH  038%=      5-min Rain = 0
KTH1 200007Z 15006KT 19/04 A2984 RMK A01 T01900044  RH  038%=      5-min Rain = 0
KTH1 200008Z 15006KT 19/04 A2984 RMK A01 T01900044  RH  038%=      5-min Rain = 0
KTH1 200009Z 15005KT 19/04 A2984 RMK A01 T01900044  RH  038%=      5-min Rain = 0
KTH1 200010Z 15005KT 19/04 A2984 RMK A01 T01890043  RH  038%=      5-min Rain = 0
KTH1 200011Z 15006KT 19/04 A2984 RMK A01 T01890044  RH  038%=      5-min Rain = 0
KTH1 200012Z 15005KT 19/04 A2984 RMK A01 T01880043  RH  038%=      5-min Rain = 0
KTH1 200013Z 14006KT 19/04 A2984 RMK A01 T01880044  RH  039%=      5-min Rain = 0
KTH1 200014Z 15005KT 19/04 A2984 RMK A01 T01870044  RH  039%=      5-min Rain = 0
KTH1 200015Z 15005KT 19/04 A2984 RMK A01 T01870044  RH  039%=      5-min Rain = 0
KTH1 200016Z 15006KT 19/04 A2984 RMK A01 T01860044  RH  039%=      5-min Rain = 0
KTH1 200017Z 14005KT 19/04 A2984 RMK A01 T01860044  RH  039%=      5-min Rain = 0
KTH1 200018Z 14005KT 19/05 A2984 RMK A01 T01860045  RH  039%=      5-min Rain = 0
KTH1 200019Z 14006KT 19/04 A2984 RMK A01 T01850044  RH  039%=      5-min Rain = 0
KTH1 200020Z 14006KT 18/04 A2984 RMK A01 T01840044  RH  040%=      5-min Rain = 0
KTH1 200021Z 14005KT 18/05 A2984 RMK A01 T01840045  RH  040%=      5-min Rain = 0
KTH1 200022Z 14005KT 18/04 A2984 RMK A01 T01830044  RH  040%=      5-min Rain = 0
KTH1 200023Z 14006KT 18/04 A2984 RMK A01 T01830044  RH  040%=      5-min Rain = 0
KTH1 200024Z 14006KT 18/05 A2984 RMK A01 T01830045  RH  040%=      5-min Rain = 0
KTH1 200025Z 14006KT 18/05 A2984 RMK A01 T01820045  RH  040%=      5-min Rain = 0
KTH1 200026Z 15006KT 18/05 A2984 RMK A01 T01820045  RH  040%=      5-min Rain = 0
KTH1 200027Z 14006KT 18/05 A2984 RMK A01 T01820045  RH  040%=      5-min Rain = 0
KTH1 200028Z 14006KT 18/05 A2984 RMK A01 T01820045  RH  040%=      5-min Rain = 0
KTH1 200029Z 14006KT 18/05 A2984 RMK A01 T01820045  RH  040%=      5-min Rain = 0
KTH1 200030Z 15006KT 18/05 A2984 RMK A01 T01810045  RH  041%=      5-min Rain = 0
KTH1 200031Z 15006KT 18/05 A2984 RMK A01 T01810045  RH  041%=      5-min Rain = 0
KTH1 200032Z 15006KT 18/05 A2984 RMK A01 T01810045  RH  041%=      5-min Rain = 0
KTH1 200033Z 15006KT 18/05 A2984 RMK A01 T01810046  RH  041%=      5-min Rain = 0
KTH1 200034Z 15006KT 18/05 A2984 RMK A01 T01800046  RH  041%=      5-min Rain = 0
KTH1 200035Z 15006KT 18/05 A2984 RMK A01 T01800045  RH  041%=      5-min Rain = 0
KTH1 200036Z 15006KT 18/05 A2984 RMK A01 T01790046  RH  041%=      5-min Rain = 0
KTH1 200037Z 15006KT 18/05 A2984 RMK A01 T01780045  RH  041%=      5-min Rain = 0
KTH1 200038Z 15006KT 18/05 A2984 RMK A01 T01780046  RH  041%=      5-min Rain = 0
KTH1 200039Z 15005KT 18/05 A2984 RMK A01 T01780046  RH  042%=      5-min Rain = 0
KTH1 200040Z 15006KT 18/05 A2984 RMK A01 T01780045  RH  042%=      5-min Rain = 0
KTH1 200041Z 15005KT 18/05 A2984 RMK A01 T01770046  RH  042%=      5-min Rain = 0
KTH1 200042Z 15005KT 18/05 A2984 RMK A01 T01760045  RH  042%=      5-min Rain = 0
KTH1 200043Z 15006KT 18/05 A2984 RMK A01 T01760046  RH  042%=      5-min Rain = 0
KTH1 200044Z 15005KT 18/05 A2984 RMK A01 T01750046  RH  042%=      5-min Rain = 0
KTH1 200045Z 15005KT 17/05 A2984 RMK A01 T01740045  RH  042%=      5-min Rain = 0
KTH1 200046Z 15005KT 17/05 A2984 RMK A01 T01740045  RH  042%=      5-min Rain = 0
KTH1 200047Z 15006KT 18/05 A2984 RMK A01 T01750045  RH  042%=      5-min Rain = 0
KTH1 200048Z 15006KT 18/05 A2984 RMK A01 T01750046  RH  042%=      5-min Rain = 0
KTH1 200049Z 14006KT 17/05 A2984 RMK A01 T01740046  RH  042%=      5-min Rain = 0
KTH1 200050Z 15007KT 18/05 A2984 RMK A01 T01750046  RH  043%=      5-min Rain = 0
KTH1 200051Z 15007KT 17/05 A2984 RMK A01 T01740046  RH  043%=      5-min Rain = 0
KTH1 200052Z 15007KT 17/05 A2984 RMK A01 T01740046  RH  043%=      5-min Rain = 0
KTH1 200053Z 15007KT 17/05 A2984 RMK A01 T01740046  RH  043%=      5-min Rain = 0
KTH1 200054Z 15006KT 17/05 A2984 RMK A01 T01740046  RH  043%=      5-min Rain = 0
KTH1 200055Z 15007KT 17/05 A2984 RMK A01 T01740046  RH  043%=      5-min Rain = 0
KTH1 200056Z 15007KT 17/05 A2984 RMK A01 T01740047  RH  043%=      5-min Rain = 0
KTH1 200057Z 15006KT 17/05 A2984 RMK A01 T01730047  RH  043%=      5-min Rain = 0
KTH1 200058Z 15006KT 17/05 A2984 RMK A01 T01730047  RH  043%=      5-min Rain = 0
KTH1 200059Z 15006KT 17/05 A2984 RMK A01 T01720047  RH  043%=      5-min Rain = 0
KTH1 200100Z 15006KT 17/05 A2984 RMK A01 T01720047  RH  044%=      5-min Rain = 0
KTH1 200101Z 15006KT 17/05 A2984 RMK A01 T01720048  RH  044%=      5-min Rain = 0
KTH1 200102Z 15006KT 17/05 A2984 RMK A01 T01710047  RH  044%=      5-min Rain = 0
KTH1 200103Z 15006KT 17/05 A2984 RMK A01 T01700047  RH  044%=      5-min Rain = 0
KTH1 200104Z 15006KT 17/05 A2984 RMK A01 T01700048  RH  044%=      5-min Rain = 0
KTH1 200105Z 15006KT 17/05 A2984 RMK A01 T01690048  RH  045%=      5-min Rain = 0
KTH1 200106Z 15006KT 17/05 A2984 RMK A01 T01680048  RH  045%=      5-min Rain = 0
KTH1 200107Z 15006KT 17/05 A2984 RMK A01 T01680049  RH  045%=      5-min Rain = 0
KTH1 200108Z 15006KT 17/05 A2984 RMK A01 T01670049  RH  045%=      5-min Rain = 0
KTH1 200109Z 15006KT 17/05 A2984 RMK A01 T01660049  RH  046%=      5-min Rain = 0
KTH1 200110Z 15006KT 17/05 A2984 RMK A01 T01650049  RH  046%=      5-min Rain = 0
KTH1 200111Z 15005KT 17/05 A2984 RMK A01 T01650049  RH  046%=      5-min Rain = 0
KTH1 200112Z 15006KT 16/05 A2984 RMK A01 T01640050  RH  047%=      5-min Rain = 0
KTH1 200113Z 15006KT 16/05 A2984 RMK A01 T01630050  RH  047%=      5-min Rain = 0
KTH1 200114Z 15005KT 16/05 A2984 RMK A01 T01630050  RH  047%=      5-min Rain = 0
KTH1 200115Z 15006KT 16/05 A2984 RMK A01 T01620050  RH  047%=      5-min Rain = 0
KTH1 200116Z 15005KT 16/05 A2984 RMK A01 T01620050  RH  047%=      5-min Rain = 0
KTH1 200117Z 15005KT 16/05 A2984 RMK A01 T01620050  RH  048%=      5-min Rain = 0
KTH1 200118Z 15005KT 16/05 A2984 RMK A01 T01620051  RH  048%=      5-min Rain = 0
KTH1 200119Z 14005KT 16/05 A2984 RMK A01 T01610050  RH  048%=      5-min Rain = 0
KTH1 200120Z 14005KT 16/05 A2984 RMK A01 T01610051  RH  048%=      5-min Rain = 0
KTH1 200121Z 14005KT 16/05 A2984 RMK A01 T01600051  RH  048%=      5-min Rain = 0
KTH1 200122Z 14005KT 16/05 A2984 RMK A01 T01600051  RH  048%=      5-min Rain = 0
KTH1 200123Z 14005KT 16/05 A2984 RMK A01 T01600051  RH  048%=      5-min Rain = 0
KTH1 200124Z 14005KT 16/05 A2984 RMK A01 T01590051  RH  048%=      5-min Rain = 0
KTH1 200125Z 14006KT 16/05 A2984 RMK A01 T01590051  RH  049%=      5-min Rain = 0
KTH1 200126Z 14005KT 16/05 A2984 RMK A01 T01590051  RH  049%=      5-min Rain = 0
KTH1 200127Z 14005KT 16/05 A2984 RMK A01 T01590051  RH  049%=      5-min Rain = 0
KTH1 200128Z 14005KT 16/05 A2985 RMK A01 T01590051  RH  049%=      5-min Rain = 0
KTH1 200129Z 14006KT 16/05 A2984 RMK A01 T01590051  RH  049%=      5-min Rain = 0
KTH1 200130Z 14006KT 16/05 A2984 RMK A01 T01580052  RH  049%=      5-min Rain = 0
KTH1 200131Z 14006KT 16/05 A2984 RMK A01 T01580051  RH  049%=      5-min Rain = 0
KTH1 200132Z 14006KT 16/05 A2984 RMK A01 T01570052  RH  049%=      5-min Rain = 0
KTH1 200133Z 14006KT 16/05 A2984 RMK A01 T01570052  RH  050%=      5-min Rain = 0
KTH1 200134Z 15006KT 16/05 A2984 RMK A01 T01570052  RH  050%=      5-min Rain = 0
KTH1 200135Z 15006KT 16/05 A2984 RMK A01 T01560052  RH  050%=      5-min Rain = 0
KTH1 200136Z 15006KT 16/05 A2984 RMK A01 T01560052  RH  050%=      5-min Rain = 0
KTH1 200137Z 15006KT 16/05 A2984 RMK A01 T01560052  RH  050%=      5-min Rain = 0
KTH1 200138Z 15006KT 16/05 A2984 RMK A01 T01560052  RH  050%=      5-min Rain = 0
KTH1 200139Z 15007KT 16/05 A2984 RMK A01 T01560052  RH  050%=      5-min Rain = 0
KTH1 200140Z 15007KT 16/05 A2984 RMK A01 T01560052  RH  050%=      5-min Rain = 0
KTH1 200141Z 15007KT 16/05 A2984 RMK A01 T01560053  RH  050%=      5-min Rain = 0
KTH1 200142Z 15007KT 16/05 A2984 RMK A01 T01560053  RH  050%=      5-min Rain = 0
KTH1 200143Z 15007KT 16/05 A2984 RMK A01 T01560053  RH  050%=      5-min Rain = 0
KTH1 200144Z 15007KT 16/05 A2984 RMK A01 T01560053  RH  050%=      5-min Rain = 0
KTH1 200145Z 15007KT 16/05 A2984 RMK A01 T01560053  RH  050%=      5-min Rain = 0
KTH1 200146Z 15007KT 16/05 A2984 RMK A01 T01550053  RH  051%=      5-min Rain = 0
KTH1 200147Z 15007KT 16/05 A2984 RMK A01 T01550053  RH  051%=      5-min Rain = 0
KTH1 200148Z 15007KT 16/05 A2984 RMK A01 T01550053  RH  051%=      5-min Rain = 0
KTH1 200149Z 15008KT 16/05 A2984 RMK A01 T01550054  RH  051%=      5-min Rain = 0
KTH1 200150Z 15008KT 16/05 A2984 RMK A01 T01550054  RH  051%=      5-min Rain = 0
KTH1 200151Z 15008KT 16/05 A2984 RMK A01 T01550054  RH  051%=      5-min Rain = 0
KTH1 200152Z 15008KT 16/05 A2984 RMK A01 T01550054  RH  051%=      5-min Rain = 0
KTH1 200153Z 15008KT 16/06 A2984 RMK A01 T01560055  RH  051%=      5-min Rain = 0
KTH1 200154Z 15009KT 16/06 A2984 RMK A01 T01570055  RH  051%=      5-min Rain = 0
KTH1 200155Z 15009KT 16/06 A2984 RMK A01 T01580055  RH  050%=      5-min Rain = 0
KTH1 200156Z 15008KT 16/06 A2984 RMK A01 T01590055  RH  050%=      5-min Rain = 0
KTH1 200157Z 15009KT 16/06 A2984 RMK A01 T01590055  RH  050%=      5-min Rain = 0
KTH1 200158Z 15008KT 16/06 A2984 RMK A01 T01600056  RH  050%=      5-min Rain = 0
KTH1 200159Z 15008KT 16/06 A2984 RMK A01 T01600056  RH  050%=      5-min Rain = 0
KTH1 200200Z 15008KT 16/06 A2984 RMK A01 T01600056  RH  050%=      5-min Rain = 0
KTH1 200201Z 15008KT 16/06 A2984 RMK A01 T01610056  RH  050%=      5-min Rain = 0
KTH1 200202Z 15009KT 16/06 A2984 RMK A01 T01620057  RH  049%=      5-min Rain = 0
KTH1 200203Z 15008KT 16/06 A2984 RMK A01 T01630057  RH  049%=      5-min Rain = 0
KTH1 200204Z 15010KT 16/06 A2984 RMK A01 T01640057  RH  049%=      5-min Rain = 0
KTH1 200205Z 15009KT 16/06 A2984 RMK A01 T01640057  RH  049%=      5-min Rain = 0
KTH1 200206Z 15008KT 17/06 A2984 RMK A01 T01650057  RH  049%=      5-min Rain = 0
KTH1 200207Z 15009KT 17/06 A2984 RMK A01 T01650057  RH  049%=      5-min Rain = 0
KTH1 200208Z 15008KT 17/06 A2984 RMK A01 T01660058  RH  049%=      5-min Rain = 0
KTH1 200209Z 15010KT 17/06 A2984 RMK A01 T01660058  RH  049%=      5-min Rain = 0
KTH1 200210Z 15009KT 17/06 A2984 RMK A01 T01670058  RH  048%=      5-min Rain = 0
KTH1 200211Z 15009KT 17/06 A2984 RMK A01 T01680058  RH  048%=      5-min Rain = 0
KTH1 200212Z 15010KT 17/06 A2984 RMK A01 T01680058  RH  048%=      5-min Rain = 0
KTH1 200213Z 15010KT 17/06 A2985 RMK A01 T01680058  RH  048%=      5-min Rain = 0
KTH1 200214Z 15010KT 17/06 A2984 RMK A01 T01680058  RH  048%=      5-min Rain = 0
KTH1 200215Z 15010KT 17/06 A2984 RMK A01 T01690058  RH  048%=      5-min Rain = 0
KTH1 200216Z 15010KT 17/06 A2984 RMK A01 T01690058  RH  048%=      5-min Rain = 0
KTH1 200217Z 15009KT 17/06 A2984 RMK A01 T01700058  RH  048%=      5-min Rain = 0
KTH1 200218Z 15010KT 17/06 A2984 RMK A01 T01690058  RH  048%=      5-min Rain = 0
KTH1 200219Z 15009KT 17/06 A2985 RMK A01 T01690058  RH  048%=      5-min Rain = 0
KTH1 200220Z 15010KT 17/06 A2985 RMK A01 T01700058  RH  048%=      5-min Rain = 0
KTH1 200221Z 15010KT 17/06 A2984 RMK A01 T01700058  RH  048%=      5-min Rain = 0
KTH1 200222Z 15009KT 17/06 A2984 RMK A01 T01700058  RH  048%=      5-min Rain = 0
KTH1 200223Z 15010KT 17/06 A2984 RMK A01 T01700058  RH  048%=      5-min Rain = 0
KTH1 200224Z 15009KT 17/06 A2984 RMK A01 T01700058  RH  048%=      5-min Rain = 0
KTH1 200225Z 15010KT 17/06 A2984 RMK A01 T01700058  RH  048%=      5-min Rain = 0
KTH1 200226Z 15010KT 17/06 A2984 RMK A01 T01700058  RH  048%=      5-min Rain = 0
KTH1 200227Z 15010KT 17/06 A2984 RMK A01 T01700058  RH  048%=      5-min Rain = 0
KTH1 200228Z 15010KT 17/06 A2984 RMK A01 T01700059  RH  048%=      5-min Rain = 0
KTH1 200229Z 15009KT 17/06 A2984 RMK A01 T01700058  RH  048%=      5-min Rain = 0
KTH1 200230Z 15010KT 17/06 A2984 RMK A01 T01700059  RH  048%=      5-min Rain = 0
KTH1 200231Z 15009KT 17/06 A2984 RMK A01 T01700059  RH  048%=      5-min Rain = 0
KTH1 200232Z 15008KT 17/06 A2984 RMK A01 T01700058  RH  048%=      5-min Rain = 0
KTH1 200233Z 15009KT 17/06 A2984 RMK A01 T01700058  RH  048%=      5-min Rain = 0
KTH1 200234Z 15010KT 17/06 A2984 RMK A01 T01690058  RH  048%=      5-min Rain = 0
KTH1 200235Z 15010KT 17/06 A2984 RMK A01 T01690058  RH  048%=      5-min Rain = 0
KTH1 200236Z 15009KT 17/06 A2984 RMK A01 T01690059  RH  048%=      5-min Rain = 0
KTH1 200237Z 15009KT 17/06 A2984 RMK A01 T01690058  RH  048%=      5-min Rain = 0
KTH1 200238Z 15009KT 17/06 A2984 RMK A01 T01690058  RH  048%=      5-min Rain = 0
KTH1 200239Z 15010KT 17/06 A2984 RMK A01 T01680058  RH  048%=      5-min Rain = 0
KTH1 200240Z 15009KT 17/06 A2984 RMK A01 T01680058  RH  048%=      5-min Rain = 0
KTH1 200241Z 15009KT 17/06 A2984 RMK A01 T01680058  RH  048%=      5-min Rain = 0
KTH1 200242Z 15009KT 17/06 A2984 RMK A01 T01670058  RH  048%=      5-min Rain = 0
KTH1 200243Z 15009KT 17/06 A2984 RMK A01 T01670058  RH  049%=      5-min Rain = 0
KTH1 200244Z 15010KT 17/06 A2984 RMK A01 T01660058  RH  049%=      5-min Rain = 0
KTH1 200245Z 15008KT 17/06 A2984 RMK A01 T01660058  RH  049%=      5-min Rain = 0
KTH1 200246Z 15009KT 17/06 A2984 RMK A01 T01660058  RH  049%=      5-min Rain = 0
KTH1 200247Z 15009KT 17/06 A2984 RMK A01 T01660058  RH  049%=      5-min Rain = 0
KTH1 200248Z 16009KT 17/06 A2984 RMK A01 T01650058  RH  049%=      5-min Rain = 0
KTH1 200249Z 15010KT 17/06 A2984 RMK A01 T01650058  RH  049%=      5-min Rain = 0
KTH1 200250Z 15009G14KT 17/06 A2984 RMK A01 T01650059  RH  049%=      5-min Rain = 0
KTH1 200251Z 16010KT 17/06 A2984 RMK A01 T01650058  RH  049%=      5-min Rain = 0
KTH1 200252Z 15009KT 16/06 A2984 RMK A01 T01640058  RH  049%=      5-min Rain = 0
KTH1 200253Z 15009KT 16/06 A2984 RMK A01 T01640058  RH  049%=      5-min Rain = 0
KTH1 200254Z 15009KT 16/06 A2984 RMK A01 T01640058  RH  050%=      5-min Rain = 0
KTH1 200255Z 15010KT 16/06 A2984 RMK A01 T01630058  RH  050%=      5-min Rain = 0
KTH1 200256Z 15009KT 16/06 A2984 RMK A01 T01630058  RH  050%=      5-min Rain = 0
KTH1 200257Z 15008G13KT 16/06 A2984 RMK A01 T01620058  RH  050%=      5-min Rain = 0
KTH1 200258Z 15011KT 16/06 A2984 RMK A01 T01620059  RH  050%=      5-min Rain = 0
KTH1 200259Z 15010KT 16/06 A2984 RMK A01 T01620059  RH  050%=      5-min Rain = 0
KTH1 200300Z 16009KT 16/06 A2984 RMK A01 T01620059  RH  050%=      5-min Rain = 0
KTH1 200301Z 15010KT 16/06 A2984 RMK A01 T01620059  RH  050%=      5-min Rain = 0
KTH1 200302Z 16010KT 16/06 A2984 RMK A01 T01620059  RH  051%=      5-min Rain = 0
KTH1 200303Z 15010KT 16/06 A2984 RMK A01 T01610059  RH  051%=      5-min Rain = 0
KTH1 200304Z 16009KT 16/06 A2985 RMK A01 T01610059  RH  051%=      5-min Rain = 0
KTH1 200305Z 16009KT 16/06 A2985 RMK A01 T01610059  RH  051%=      5-min Rain = 0
KTH1 200306Z 15010KT 16/06 A2985 RMK A01 T01610059  RH  051%=      5-min Rain = 0
KTH1 200307Z 16010KT 16/06 A2985 RMK A01 T01600059  RH  051%=      5-min Rain = 0
KTH1 200308Z 15009KT 16/06 A2985 RMK A01 T01610059  RH  051%=      5-min Rain = 0
KTH1 200309Z 15009KT 16/06 A2985 RMK A01 T01600059  RH  051%=      5-min Rain = 0
KTH1 200310Z 15010KT 16/06 A2985 RMK A01 T01610059  RH  051%=      5-min Rain = 0
KTH1 200311Z 15010KT 16/06 A2985 RMK A01 T01610060  RH  051%=      5-min Rain = 0
KTH1 200312Z 16010KT 16/06 A2985 RMK A01 T01600060  RH  051%=      5-min Rain = 0
KTH1 200313Z 16009KT 16/06 A2985 RMK A01 T01590060  RH  052%=      5-min Rain = 0
KTH1 200314Z 16010KT 16/06 A2985 RMK A01 T01590060  RH  052%=      5-min Rain = 0
KTH1 200315Z 15010KT 16/06 A2985 RMK A01 T01590060  RH  052%=      5-min Rain = 0
KTH1 200316Z 15011KT 16/06 A2985 RMK A01 T01590060  RH  052%=      5-min Rain = 0
KTH1 200317Z 15010KT 16/06 A2985 RMK A01 T01600061  RH  052%=      5-min Rain = 0
KTH1 200318Z 15009G14KT 16/06 A2985 RMK A01 T01590061  RH  052%=      5-min Rain = 0
KTH1 200319Z 15010KT 16/06 A2985 RMK A01 T01590060  RH  052%=      5-min Rain = 0
KTH1 200320Z 16010KT 16/06 A2985 RMK A01 T01580060  RH  052%=      5-min Rain = 0
KTH1 200321Z 16010KT 16/06 A2985 RMK A01 T01570060  RH  052%=      5-min Rain = 0
KTH1 200322Z 15010KT 16/06 A2985 RMK A01 T01580061  RH  052%=      5-min Rain = 0
KTH1 200323Z 16011KT 16/06 A2985 RMK A01 T01570060  RH  052%=      5-min Rain = 0
KTH1 200324Z 15009KT 16/06 A2985 RMK A01 T01580061  RH  053%=      5-min Rain = 0
KTH1 200325Z 16010KT 16/06 A2985 RMK A01 T01580061  RH  053%=      5-min Rain = 0
KTH1 200326Z 15010KT 16/06 A2985 RMK A01 T01570060  RH  053%=      5-min Rain = 0
KTH1 200327Z 16011KT 16/06 A2985 RMK A01 T01570061  RH  053%=      5-min Rain = 0
KTH1 200328Z 15009KT 16/06 A2985 RMK A01 T01570061  RH  053%=      5-min Rain = 0
KTH1 200329Z 16010KT 16/06 A2985 RMK A01 T01560061  RH  053%=      5-min Rain = 0
KTH1 200330Z 15010KT 16/06 A2985 RMK A01 T01560061  RH  053%=      5-min Rain = 0
KTH1 200331Z 15010KT 16/06 A2985 RMK A01 T01560061  RH  053%=      5-min Rain = 0
KTH1 200332Z 15009KT 16/06 A2985 RMK A01 T01560061  RH  053%=      5-min Rain = 0
KTH1 200333Z 15009KT 16/06 A2985 RMK A01 T01550061  RH  054%=      5-min Rain = 0
KTH1 200334Z 15010KT 16/06 A2985 RMK A01 T01550062  RH  054%=      5-min Rain = 0
KTH1 200335Z 16009KT 16/06 A2985 RMK A01 T01550062  RH  054%=      5-min Rain = 0
KTH1 200336Z 15009KT 15/06 A2985 RMK A01 T01540062  RH  054%=      5-min Rain = 0
KTH1 200337Z 16009KT 15/06 A2985 RMK A01 T01540062  RH  054%=      5-min Rain = 0
KTH1 200338Z 16010KT 15/06 A2985 RMK A01 T01540062  RH  054%=      5-min Rain = 0
KTH1 200339Z 15010KT 15/06 A2985 RMK A01 T01540062  RH  054%=      5-min Rain = 0
KTH1 200340Z 15009KT 15/06 A2985 RMK A01 T01540063  RH  054%=      5-min Rain = 0
KTH1 200341Z 16011KT 15/06 A2985 RMK A01 T01540063  RH  054%=      5-min Rain = 0
KTH1 200342Z 16009KT 15/06 A2985 RMK A01 T01530063  RH  055%=      5-min Rain = 0
KTH1 200343Z 16009KT 15/06 A2985 RMK A01 T01530063  RH  055%=      5-min Rain = 0
KTH1 200344Z 16009KT 15/06 A2985 RMK A01 T01530063  RH  055%=      5-min Rain = 0
KTH1 200345Z 16008KT 15/06 A2985 RMK A01 T01530063  RH  055%=      5-min Rain = 0
KTH1 200346Z 16010KT 15/06 A2985 RMK A01 T01530063  RH  055%=      5-min Rain = 0
KTH1 200347Z 16010KT 15/06 A2985 RMK A01 T01530064  RH  055%=      5-min Rain = 0
KTH1 200348Z 16010KT 15/06 A2985 RMK A01 T01530064  RH  055%=      5-min Rain = 0
KTH1 200349Z 15010KT 15/06 A2985 RMK A01 T01530064  RH  055%=      5-min Rain = 0
KTH1 200350Z 16010KT 15/06 A2985 RMK A01 T01530064  RH  055%=      5-min Rain = 0
KTH1 200351Z 16009KT 15/06 A2985 RMK A01 T01530064  RH  056%=      5-min Rain = 0
KTH1 200352Z 16010KT 15/06 A2985 RMK A01 T01520064  RH  056%=      5-min Rain = 0
KTH1 200353Z 16009KT 15/07 A2985 RMK A01 T01520065  RH  056%=      5-min Rain = 0
KTH1 200354Z 15009KT 15/07 A2985 RMK A01 T01520065  RH  056%=      5-min Rain = 0
KTH1 200355Z 15007KT 15/07 A2985 RMK A01 T01520065  RH  056%=      5-min Rain = 0
KTH1 200356Z 16008KT 15/07 A2985 RMK A01 T01510065  RH  056%=      5-min Rain = 0
KTH1 200357Z 15009KT 15/07 A2985 RMK A01 T01510065  RH  056%=      5-min Rain = 0
KTH1 200358Z 16009KT 15/07 A2985 RMK A01 T01500065  RH  057%=      5-min Rain = 0
KTH1 200359Z 15009KT 15/07 A2985 RMK A01 T01500065  RH  057%=      5-min Rain = 0
KTH1 200400Z 15008KT 15/07 A2985 RMK A01 T01500065  RH  057%=      5-min Rain = 0
KTH1 200401Z 15008KT 15/07 A2985 RMK A01 T01500065  RH  057%=      5-min Rain = 0
KTH1 200402Z 15009KT 15/07 A2985 RMK A01 T01490066  RH  057%=      5-min Rain = 0
KTH1 200403Z 16008KT 15/07 A2985 RMK A01 T01490065  RH  057%=      5-min Rain = 0
KTH1 200404Z 15008KT 15/07 A2985 RMK A01 T01490066  RH  058%=      5-min Rain = 0
KTH1 200405Z 15009KT 15/07 A2985 RMK A01 T01480066  RH  058%=      5-min Rain = 0
KTH1 200406Z 15008KT 15/07 A2985 RMK A01 T01480066  RH  058%=      5-min Rain = 0
KTH1 200407Z 15008KT 15/07 A2985 RMK A01 T01480066  RH  058%=      5-min Rain = 0
KTH1 200408Z 15007KT 15/07 A2985 RMK A01 T01480066  RH  058%=      5-min Rain = 0
KTH1 200409Z 15008KT 15/07 A2985 RMK A01 T01480067  RH  058%=      5-min Rain = 0
KTH1 200410Z 15008KT 15/07 A2985 RMK A01 T01470067  RH  058%=      5-min Rain = 0
KTH1 200411Z 15006KT 15/07 A2985 RMK A01 T01470067  RH  059%=      5-min Rain = 0
KTH1 200412Z 15008KT 15/07 A2985 RMK A01 T01460067  RH  059%=      5-min Rain = 0
KTH1 200413Z 16008KT 15/07 A2985 RMK A01 T01470067  RH  059%=      5-min Rain = 0
KTH1 200414Z 16006KT 15/07 A2985 RMK A01 T01470067  RH  059%=      5-min Rain = 0
KTH1 200415Z 15008KT 15/07 A2985 RMK A01 T01470068  RH  059%=      5-min Rain = 0
KTH1 200416Z 16007KT 15/07 A2985 RMK A01 T01460068  RH  059%=      5-min Rain = 0
KTH1 200417Z 16008KT 15/07 A2985 RMK A01 T01460068  RH  059%=      5-min Rain = 0
KTH1 200418Z 16009KT 15/07 A2985 RMK A01 T01460068  RH  060%=      5-min Rain = 0
KTH1 200419Z 16008KT 15/07 A2985 RMK A01 T01460069  RH  060%=      5-min Rain = 0
KTH1 200420Z 16008KT 15/07 A2985 RMK A01 T01470070  RH  060%=      5-min Rain = 0
KTH1 200421Z 16008KT 15/07 A2985 RMK A01 T01480070  RH  060%=      5-min Rain = 0
KTH1 200422Z 16010KT 15/07 A2985 RMK A01 T01480071  RH  060%=      5-min Rain = 0
KTH1 200423Z 16009G14KT 15/07 A2985 RMK A01 T01490071  RH  060%=      5-min Rain = 0
KTH1 200424Z 16009KT 15/07 A2985 RMK A01 T01490072  RH  060%=      5-min Rain = 0
KTH1 200425Z 16009KT 15/07 A2985 RMK A01 T01500072  RH  060%=      5-min Rain = 0
KTH1 200426Z 16009KT 15/07 A2985 RMK A01 T01510073  RH  059%=      5-min Rain = 0
KTH1 200427Z 16009G14KT 15/07 A2985 RMK A01 T01510073  RH  059%=      5-min Rain = 0
KTH1 200428Z 16010KT 15/07 A2985 RMK A01 T01520073  RH  059%=      5-min Rain = 0
KTH1 200429Z 16009KT 15/07 A2985 RMK A01 T01530074  RH  059%=      5-min Rain = 0
KTH1 200430Z 15009KT 15/07 A2985 RMK A01 T01530074  RH  059%=      5-min Rain = 0
KTH1 200431Z 16009KT 15/07 A2985 RMK A01 T01530074  RH  059%=      5-min Rain = 0
KTH1 200432Z 16008KT 15/07 A2985 RMK A01 T01530074  RH  059%=      5-min Rain = 0
KTH1 200433Z 16011KT 15/07 A2985 RMK A01 T01530074  RH  059%=      5-min Rain = 0
KTH1 200434Z 16009G14KT 15/07 A2985 RMK A01 T01530074  RH  059%=      5-min Rain = 0
KTH1 200435Z 16011KT 15/07 A2985 RMK A01 T01530074  RH  059%=      5-min Rain = 0
KTH1 200436Z 16009KT 15/08 A2985 RMK A01 T01530075  RH  060%=      5-min Rain = 0
KTH1 200437Z 16010KT 15/08 A2985 RMK A01 T01530075  RH  060%=      5-min Rain = 0
KTH1 200438Z 16010KT 15/08 A2985 RMK A01 T01530075  RH  060%=      5-min Rain = 0
KTH1 200439Z 16010KT 15/08 A2985 RMK A01 T01530076  RH  060%=      5-min Rain = 0
KTH1 200440Z 16008KT 15/08 A2985 RMK A01 T01530076  RH  060%=      5-min Rain = 0
KTH1 200441Z 16009KT 15/08 A2985 RMK A01 T01530076  RH  060%=      5-min Rain = 0
KTH1 200442Z 16009KT 15/08 A2985 RMK A01 T01530076  RH  060%=      5-min Rain = 0
KTH1 200443Z 16009KT 15/08 A2985 RMK A01 T01530076  RH  060%=      5-min Rain = 0
KTH1 200444Z 16010KT 15/08 A2985 RMK A01 T01530077  RH  060%=      5-min Rain = 0
KTH1 200445Z 16008KT 15/08 A2985 RMK A01 T01530077  RH  060%=      5-min Rain = 0
KTH1 200446Z 17008KT 15/08 A2985 RMK A01 T01530077  RH  060%=      5-min Rain = 0
KTH1 200447Z 16009KT 15/08 A2985 RMK A01 T01520077  RH  061%=      5-min Rain = 0
KTH1 200448Z 16009KT 15/08 A2985 RMK A01 T01530078  RH  061%=      5-min Rain = 0
KTH1 200449Z 16010KT 15/08 A2985 RMK A01 T01520078  RH  061%=      5-min Rain = 0
KTH1 200450Z 16008KT 15/08 A2985 RMK A01 T01520078  RH  061%=      5-min Rain = 0
KTH1 200451Z 16007G12KT 15/08 A2985 RMK A01 T01530078  RH  061%=      5-min Rain = 0
KTH1 200452Z 16008KT 15/08 A2985 RMK A01 T01530078  RH  061%=      5-min Rain = 0
KTH1 200453Z 16009KT 15/08 A2985 RMK A01 T01530078  RH  061%=      5-min Rain = 0
KTH1 200454Z 16009KT 15/08 A2985 RMK A01 T01520079  RH  061%=      5-min Rain = 0
KTH1 200455Z 16008KT 15/08 A2985 RMK A01 T01520079  RH  062%=      5-min Rain = 0
KTH1 200456Z 16008KT 15/08 A2985 RMK A01 T01520079  RH  062%=      5-min Rain = 0
KTH1 200457Z 16008KT 15/08 A2985 RMK A01 T01520079  RH  062%=      5-min Rain = 0
KTH1 200458Z 16008KT 15/08 A2986 RMK A01 T01520079  RH  062%=      5-min Rain = 0
KTH1 200459Z 16008KT 15/08 A2986 RMK A01 T01520079  RH  062%=      5-min Rain = 0
KTH1 200500Z 16007KT 15/08 A2986 RMK A01 T01520080  RH  062%=      5-min Rain = 0
KTH1 200501Z 17008KT 15/08 A2986 RMK A01 T01520080  RH  062%=      5-min Rain = 0
KTH1 200502Z 17007KT 15/08 A2986 RMK A01 T01520080  RH  062%=      5-min Rain = 0
KTH1 200503Z 16006KT 15/08 A2986 RMK A01 T01520080  RH  062%=      5-min Rain = 0
KTH1 200504Z 17007KT 15/08 A2986 RMK A01 T01510080  RH  062%=      5-min Rain = 0
KTH1 200505Z 16005KT 15/08 A2986 RMK A01 T01510081  RH  063%=      5-min Rain = 0
KTH1 200506Z 16007KT 15/08 A2986 RMK A01 T01510080  RH  063%=      5-min Rain = 0
KTH1 200507Z 17007KT 15/08 A2986 RMK A01 T01510080  RH  063%=      5-min Rain = 0
KTH1 200508Z 17007KT 15/08 A2986 RMK A01 T01500080  RH  063%=      5-min Rain = 0
KTH1 200509Z 16006KT 15/08 A2986 RMK A01 T01510081  RH  063%=      5-min Rain = 0
KTH1 200510Z 17006KT 15/08 A2986 RMK A01 T01510080  RH  063%=      5-min Rain = 0
KTH1 200511Z 16007KT 15/08 A2986 RMK A01 T01500081  RH  063%=      5-min Rain = 0
KTH1 200512Z 17008KT 15/08 A2986 RMK A01 T01500081  RH  063%=      5-min Rain = 0
KTH1 200513Z 17006KT 15/08 A2986 RMK A01 T01500081  RH  063%=      5-min Rain = 0
KTH1 200514Z 16006KT 15/08 A2986 RMK A01 T01500081  RH  063%=      5-min Rain = 0
KTH1 200515Z 16007KT 15/08 A2986 RMK A01 T01500081  RH  064%=      5-min Rain = 0
KTH1 200516Z 16007KT 15/08 A2986 RMK A01 T01490081  RH  064%=      5-min Rain = 0
KTH1 200517Z 16007KT 15/08 A2986 RMK A01 T01490081  RH  064%=      5-min Rain = 0
KTH1 200518Z 16008KT 15/08 A2986 RMK A01 T01490081  RH  064%=      5-min Rain = 0
KTH1 200519Z 16007KT 15/08 A2986 RMK A01 T01480081  RH  064%=      5-min Rain = 0
KTH1 200520Z 16008KT 15/08 A2986 RMK A01 T01480081  RH  064%=      5-min Rain = 0
KTH1 200521Z 16008KT 15/08 A2986 RMK A01 T01470081  RH  065%=      5-min Rain = 0
KTH1 200522Z 16007KT 15/08 A2986 RMK A01 T01470081  RH  065%=      5-min Rain = 0
KTH1 200523Z 16007KT 15/08 A2986 RMK A01 T01460081  RH  065%=      5-min Rain = 0
KTH1 200524Z 16007KT 15/08 A2986 RMK A01 T01460081  RH  065%=      5-min Rain = 0
KTH1 200525Z 16008KT 15/08 A2986 RMK A01 T01450081  RH  065%=      5-min Rain = 0
KTH1 200526Z 17008KT 15/08 A2986 RMK A01 T01450082  RH  066%=      5-min Rain = 0
KTH1 200527Z 16007KT 15/08 A2986 RMK A01 T01460082  RH  065%=      5-min Rain = 0
KTH1 200528Z 16007KT 15/08 A2986 RMK A01 T01450082  RH  065%=      5-min Rain = 0
KTH1 200529Z 16006KT 15/08 A2986 RMK A01 T01450082  RH  066%=      5-min Rain = 0
KTH1 200530Z 16007KT 15/08 A2986 RMK A01 T01450082  RH  066%=      5-min Rain = 0
KTH1 200531Z 16007KT 15/08 A2986 RMK A01 T01450082  RH  066%=      5-min Rain = 0
KTH1 200532Z 16008KT 14/08 A2986 RMK A01 T01440082  RH  066%=      5-min Rain = 0
KTH1 200533Z 16008KT 14/08 A2986 RMK A01 T01440082  RH  066%=      5-min Rain = 0
KTH1 200534Z 16007KT 14/08 A2986 RMK A01 T01440082  RH  066%=      5-min Rain = 0
KTH1 200535Z 16007KT 14/08 A2986 RMK A01 T01440082  RH  067%=      5-min Rain = 0
KTH1 200536Z 16008KT 14/08 A2986 RMK A01 T01430082  RH  067%=      5-min Rain = 0
KTH1 200537Z 16008KT 14/08 A2986 RMK A01 T01430083  RH  067%=      5-min Rain = 0
KTH1 200538Z 16007KT 14/08 A2986 RMK A01 T01430083  RH  067%=      5-min Rain = 0
KTH1 200539Z 17009KT 14/08 A2986 RMK A01 T01430083  RH  067%=      5-min Rain = 0
KTH1 200540Z 16008KT 14/08 A2986 RMK A01 T01420083  RH  067%=      5-min Rain = 0
KTH1 200541Z 16009KT 14/08 A2986 RMK A01 T01420083  RH  068%=      5-min Rain = 0
KTH1 200542Z 16008KT 14/08 A2986 RMK A01 T01420084  RH  068%=      5-min Rain = 0
KTH1 200543Z 15009KT 14/08 A2985 RMK A01 T01430084  RH  068%=      5-min Rain = 0
KTH1 200544Z 16008KT 14/08 A2985 RMK A01 T01420084  RH  068%=      5-min Rain = 0
KTH1 200545Z 16008KT 14/08 A2985 RMK A01 T01410084  RH  068%=      5-min Rain = 0
KTH1 200546Z 16009KT 14/08 A2985 RMK A01 T01410084  RH  068%=      5-min Rain = 0
KTH1 200547Z 17007KT 14/08 A2985 RMK A01 T01410084  RH  069%=      5-min Rain = 0
KTH1 200548Z 16008KT 14/08 A2985 RMK A01 T01410084  RH  068%=      5-min Rain = 0
KTH1 200549Z 17008KT 14/08 A2985 RMK A01 T01410084  RH  069%=      5-min Rain = 0
KTH1 200550Z 16008KT 14/09 A2985 RMK A01 T01410085  RH  069%=      5-min Rain = 0
KTH1 200551Z 16008KT 14/09 A2985 RMK A01 T01420085  RH  069%=      5-min Rain = 0
KTH1 200552Z 16008KT 14/09 A2985 RMK A01 T01420085  RH  069%=      5-min Rain = 0
KTH1 200553Z 16009KT 14/09 A2985 RMK A01 T01410085  RH  069%=      5-min Rain = 0
KTH1 200554Z 16008KT 14/09 A2985 RMK A01 T01410085  RH  069%=      5-min Rain = 0
KTH1 200555Z 16009KT 14/09 A2985 RMK A01 T01410086  RH  069%=      5-min Rain = 0
KTH1 200556Z 17007KT 14/09 A2985 RMK A01 T01410085  RH  069%=      5-min Rain = 0
KTH1 200557Z 16008G13KT 14/09 A2985 RMK A01 T01400086  RH  070%=      5-min Rain = 0
KTH1 200558Z 16009KT 14/09 A2985 RMK A01 T01400086  RH  070%=      5-min Rain = 0
KTH1 200559Z 16008KT 14/09 A2985 RMK A01 T01400086  RH  070%=      5-min Rain = 0

Page generated in 0.0857 seconds.